Observation data for Odell on 05/25/2019      Previous  Date  Next       Current Mesonet Observations  Soil Data  Daily Summary Page  Observations in Plain Language
KOD1 250500Z 11004KT 18/16 A2998 RMK A01 T01770164  RH  092%=      5-min Rain = 0
KOD1 250501Z 12005KT 18/16 A2998 RMK A01 T01770164  RH  092%=      5-min Rain = 0
KOD1 250502Z 12005KT 18/16 A2998 RMK A01 T01770164  RH  092%=      5-min Rain = 0
KOD1 250503Z 13005KT 18/17 A2998 RMK A01 T01770165  RH  092%=      5-min Rain = 0
KOD1 250504Z 14004KT 18/17 A2998 RMK A01 T01770165  RH  092%=      5-min Rain = 0
KOD1 250505Z 12004KT 18/17 A2997 RMK A01 T01770165  RH  092%=      5-min Rain = 0
KOD1 250506Z 11004KT 18/17 A2997 RMK A01 T01780165  RH  092%=      5-min Rain = 0
KOD1 250507Z 11005KT 18/17 A2997 RMK A01 T01780165  RH  092%=      5-min Rain = 0
KOD1 250508Z 11006KT 18/17 A2998 RMK A01 T01780165  RH  092%=      5-min Rain = 0
KOD1 250509Z 11005KT 18/17 A2998 RMK A01 T01780165  RH  092%=      5-min Rain = 0
KOD1 250510Z 11006KT 18/17 A2997 RMK A01 T01780165  RH  092%=      5-min Rain = 0
KOD1 250511Z 09007KT 18/17 A2997 RMK A01 T01780165  RH  092%=      5-min Rain = 0
KOD1 250512Z 10007KT 18/17 A2997 RMK A01 T01780165  RH  092%=      5-min Rain = 0
KOD1 250513Z 10007KT 18/17 A2997 RMK A01 T01780165  RH  092%=      5-min Rain = 0
KOD1 250514Z 10007KT 18/17 A2996 RMK A01 T01770165  RH  092%=      5-min Rain = 0
KOD1 250515Z 10007KT 18/17 A2996 RMK A01 T01770165  RH  092%=      5-min Rain = 0
KOD1 250516Z 11008KT 18/17 A2996 RMK A01 T01770165  RH  092%=      5-min Rain = 0
KOD1 250517Z 11008KT 18/17 A2996 RMK A01 T01770165  RH  092%=      5-min Rain = 0
KOD1 250518Z 10008KT 18/17 A2996 RMK A01 T01770165  RH  092%=      5-min Rain = 0
KOD1 250519Z 10007KT 18/17 A2996 RMK A01 T01780165  RH  092%=      5-min Rain = 0
KOD1 250520Z 11007KT 18/16 A2996 RMK A01 T01780164  RH  092%=      5-min Rain = 0
KOD1 250521Z 12008KT 18/16 A2996 RMK A01 T01780164  RH  092%=      5-min Rain = 0
KOD1 250522Z 12009KT 18/17 A2996 RMK A01 T01780165  RH  092%=      5-min Rain = 0
KOD1 250523Z 12010KT 18/16 A2996 RMK A01 T01780164  RH  092%=      5-min Rain = 0
KOD1 250524Z 11009KT 18/16 A2996 RMK A01 T01780164  RH  092%=      5-min Rain = 0
KOD1 250525Z 11010KT 18/16 A2996 RMK A01 T01780164  RH  091%=      5-min Rain = 0
KOD1 250526Z 11011KT 18/16 A2996 RMK A01 T01780164  RH  091%=      5-min Rain = 0
KOD1 250527Z 11012KT 18/16 A2995 RMK A01 T01780164  RH  091%=      5-min Rain = 0
KOD1 250528Z 12011KT 18/16 A2995 RMK A01 T01780164  RH  091%=      5-min Rain = 0
KOD1 250529Z 12009KT 18/17 A2995 RMK A01 T01780165  RH  092%=      5-min Rain = 0
KOD1 250530Z 12012KT 18/17 A2995 RMK A01 T01780165  RH  092%=      5-min Rain = 0
KOD1 250531Z 12011KT 18/17 A2995 RMK A01 T01780165  RH  092%=      5-min Rain = 0
KOD1 250532Z 12011KT 18/17 A2995 RMK A01 T01780165  RH  092%=      5-min Rain = 0
KOD1 250533Z 12012KT 18/17 A2995 RMK A01 T01780165  RH  092%=      5-min Rain = 0
KOD1 250534Z 12012KT 18/17 A2995 RMK A01 T01780166  RH  093%=      5-min Rain = 0
KOD1 250535Z 12012KT 18/17 A2995 RMK A01 T01780166  RH  093%=      5-min Rain = 0
KOD1 250536Z 12011KT 18/17 A2995 RMK A01 T01780166  RH  092%=      5-min Rain = 0
KOD1 250537Z 12011KT 18/17 A2996 RMK A01 T01780165  RH  092%=      5-min Rain = 0
KOD1 250538Z 12010KT 18/17 A2996 RMK A01 T01780165  RH  092%=      5-min Rain = 0
KOD1 250539Z 12010KT 18/17 A2996 RMK A01 T01780165  RH  092%=      5-min Rain = 0
KOD1 250540Z 12011KT 18/17 A2996 RMK A01 T01780165  RH  092%=      5-min Rain = 0
KOD1 250541Z 12011KT 18/16 A2996 RMK A01 T01790164  RH  091%=      5-min Rain = 0
KOD1 250542Z 12010KT 18/16 A2996 RMK A01 T01790164  RH  091%=      5-min Rain = 0
KOD1 250543Z 11010KT 18/16 A2996 RMK A01 T01790164  RH  091%=      5-min Rain = 0
KOD1 250544Z 12010KT 18/16 A2996 RMK A01 T01800163  RH  090%=      5-min Rain = 0
KOD1 250545Z 11011KT 18/16 A2996 RMK A01 T01800163  RH  090%=      5-min Rain = 0
KOD1 250546Z 12010KT 18/16 A2996 RMK A01 T01800164  RH  090%=      5-min Rain = 0
KOD1 250547Z 12011KT 18/16 A2996 RMK A01 T01800164  RH  090%=      5-min Rain = 0
KOD1 250548Z 12010KT 18/16 A2996 RMK A01 T01800164  RH  090%=      5-min Rain = 0
KOD1 250549Z 11012KT 18/16 A2996 RMK A01 T01800164  RH  090%=      5-min Rain = 0
KOD1 250550Z 12010KT 18/16 A2996 RMK A01 T01810164  RH  090%=      5-min Rain = 0
KOD1 250551Z 12010KT 18/16 A2996 RMK A01 T01800164  RH  090%=      5-min Rain = 0
KOD1 250552Z 12010KT 18/16 A2996 RMK A01 T01800164  RH  090%=      5-min Rain = 0
KOD1 250553Z 12012KT 18/16 A2996 RMK A01 T01800164  RH  090%=      5-min Rain = 0
KOD1 250554Z 11009KT 18/16 A2996 RMK A01 T01800164  RH  090%=      5-min Rain = 0
KOD1 250555Z 12010KT 18/17 A2996 RMK A01 T01800165  RH  090%=      5-min Rain = 0
KOD1 250556Z 11010KT 18/17 A2996 RMK A01 T01800165  RH  091%=      5-min Rain = 0
KOD1 250557Z 12010KT 18/17 A2996 RMK A01 T01800165  RH  091%=      5-min Rain = 0
KOD1 250558Z 12011KT 18/17 A2996 RMK A01 T01800165  RH  091%=      5-min Rain = 0
KOD1 250559Z 12012KT 18/17 A2996 RMK A01 T01800165  RH  090%=      5-min Rain = 0
KOD1 250600Z 11011KT 18/17 A2996 RMK A01 T01810165  RH  090%=      5-min Rain = 0
KOD1 250601Z 11012KT 18/17 A2996 RMK A01 T01810165  RH  090%=      5-min Rain = 0
KOD1 250602Z 12010KT 18/17 A2996 RMK A01 T01800165  RH  091%=      5-min Rain = 0
KOD1 250603Z 11011KT 18/17 A2996 RMK A01 T01800165  RH  091%=      5-min Rain = 0
KOD1 250604Z 12011KT 18/17 A2996 RMK A01 T01800165  RH  091%=      5-min Rain = 0
KOD1 250605Z 13011KT 18/17 A2996 RMK A01 T01810165  RH  090%=      5-min Rain = 0
KOD1 250606Z 13011KT 18/17 A2996 RMK A01 T01810165  RH  090%=      5-min Rain = 0
KOD1 250607Z 13012KT 18/17 A2996 RMK A01 T01810165  RH  090%=      5-min Rain = 0
KOD1 250608Z 12011KT 18/17 A2996 RMK A01 T01810165  RH  090%=      5-min Rain = 0
KOD1 250609Z 11011KT 18/17 A2996 RMK A01 T01810165  RH  090%=      5-min Rain = 0
KOD1 250610Z 11012KT 18/17 A2996 RMK A01 T01810165  RH  090%=      5-min Rain = 0
KOD1 250611Z 12012KT 18/17 A2996 RMK A01 T01800165  RH  090%=      5-min Rain = 0
KOD1 250612Z 12011KT 18/17 A2996 RMK A01 T01810165  RH  090%=      5-min Rain = 0
KOD1 250613Z 12011KT 18/17 A2996 RMK A01 T01800165  RH  091%=      5-min Rain = 0
KOD1 250614Z 12012KT 18/17 A2996 RMK A01 T01800165  RH  091%=      5-min Rain = 0
KOD1 250615Z 11012KT 18/17 A2995 RMK A01 T01800165  RH  091%=      5-min Rain = 0
KOD1 250616Z 11011KT 18/17 A2996 RMK A01 T01800165  RH  091%=      5-min Rain = 0
KOD1 250617Z 11010KT 18/17 A2996 RMK A01 T01800165  RH  091%=      5-min Rain = 0
KOD1 250618Z 12010KT 18/17 A2996 RMK A01 T01800166  RH  091%=      5-min Rain = 0
KOD1 250619Z 12010KT 18/17 A2996 RMK A01 T01800166  RH  091%=      5-min Rain = 0
KOD1 250620Z 12009KT 18/17 A2996 RMK A01 T01800166  RH  091%=      5-min Rain = 0
KOD1 250621Z 12009KT 18/17 A2996 RMK A01 T01800166  RH  091%=      5-min Rain = 0
KOD1 250622Z 11009KT 18/17 A2996 RMK A01 T01800165  RH  091%=      5-min Rain = 0
KOD1 250623Z 11009KT 18/17 A2996 RMK A01 T01800165  RH  091%=      5-min Rain = 0
KOD1 250624Z 10010KT 18/17 A2996 RMK A01 T01800165  RH  091%=      5-min Rain = 0
KOD1 250625Z 10010KT 18/17 A2997 RMK A01 T01810166  RH  091%=      5-min Rain = 0
KOD1 250626Z 10009KT 18/17 A2997 RMK A01 T01810166  RH  091%=      5-min Rain = 0
KOD1 250627Z 10010KT 18/17 A2997 RMK A01 T01800166  RH  091%=      5-min Rain = 0
KOD1 250628Z 10009KT 18/17 A2996 RMK A01 T01800166  RH  091%=      5-min Rain = 0
KOD1 250629Z 10011KT 18/17 A2996 RMK A01 T01800166  RH  091%=      5-min Rain = 0
KOD1 250630Z 10011KT 18/17 A2996 RMK A01 T01800166  RH  091%=      5-min Rain = 0
KOD1 250631Z 10011KT 18/17 A2996 RMK A01 T01800166  RH  092%=      5-min Rain = 0
KOD1 250632Z 10010KT 18/17 A2996 RMK A01 T01800166  RH  092%=      5-min Rain = 0
KOD1 250633Z 10010KT 18/17 A2996 RMK A01 T01800167  RH  092%=      5-min Rain = 0
KOD1 250634Z 10011KT 18/17 A2996 RMK A01 T01800167  RH  092%=      5-min Rain = 0
KOD1 250635Z 10011KT 18/17 A2996 RMK A01 T01800167  RH  092%=      5-min Rain = 0
KOD1 250636Z 11010KT 18/17 A2996 RMK A01 T01800167  RH  092%=      5-min Rain = 0
KOD1 250637Z 11009KT 18/17 A2996 RMK A01 T01790167  RH  092%=      5-min Rain = 0
KOD1 250638Z 11010KT 18/17 A2996 RMK A01 T01790167  RH  092%=      5-min Rain = 0
KOD1 250639Z 11010KT 18/17 A2996 RMK A01 T01790167  RH  092%=      5-min Rain = 0
KOD1 250640Z 11010KT 18/17 A2996 RMK A01 T01800167  RH  092%=      5-min Rain = 0
KOD1 250641Z 11009KT 18/17 A2996 RMK A01 T01800167  RH  092%=      5-min Rain = 0
KOD1 250642Z 11008KT 18/17 A2996 RMK A01 T01800167  RH  092%=      5-min Rain = 0
KOD1 250643Z 11008KT 18/17 A2996 RMK A01 T01790167  RH  093%=      5-min Rain = 0
KOD1 250644Z 12007KT 18/17 A2996 RMK A01 T01790167  RH  093%=      5-min Rain = 0
KOD1 250645Z 12007KT 18/17 A2996 RMK A01 T01790167  RH  093%=      5-min Rain = 0
KOD1 250646Z 11007KT 18/17 A2996 RMK A01 T01790167  RH  093%=      5-min Rain = 0
KOD1 250647Z 11007KT 18/17 A2996 RMK A01 T01780167  RH  093%=      5-min Rain = 0
KOD1 250648Z 11008KT 18/17 A2996 RMK A01 T01780167  RH  093%=      5-min Rain = 0
KOD1 250649Z 11008KT 18/17 A2996 RMK A01 T01780167  RH  093%=      5-min Rain = 0
KOD1 250650Z 11008KT 18/17 A2996 RMK A01 T01790167  RH  093%=      5-min Rain = 0
KOD1 250651Z 11008KT 18/17 A2996 RMK A01 T01790168  RH  093%=      5-min Rain = 0
KOD1 250652Z 11008KT 18/17 A2996 RMK A01 T01790168  RH  093%=      5-min Rain = 0
KOD1 250653Z 10008KT 18/17 A2996 RMK A01 T01790168  RH  093%=      5-min Rain = 0
KOD1 250654Z 10008KT 18/17 A2996 RMK A01 T01790168  RH  093%=      5-min Rain = 0
KOD1 250655Z 10009KT 18/17 A2996 RMK A01 T01790168  RH  093%=      5-min Rain = 0
KOD1 250656Z 11008KT 18/17 A2996 RMK A01 T01800168  RH  093%=      5-min Rain = 0
KOD1 250657Z 11008KT 18/17 A2996 RMK A01 T01790168  RH  093%=      5-min Rain = 0
KOD1 250658Z 11007KT 18/17 A2996 RMK A01 T01790168  RH  093%=      5-min Rain = 0
KOD1 250659Z 11008KT 18/17 A2996 RMK A01 T01790168  RH  093%=      5-min Rain = 0
KOD1 250700Z 11008KT 18/17 A2996 RMK A01 T01790168  RH  093%=      5-min Rain = 0
KOD1 250701Z 11007KT 18/17 A2996 RMK A01 T01780168  RH  094%=      5-min Rain = 0
KOD1 250702Z 10008KT 18/17 A2996 RMK A01 T01780168  RH  094%=      5-min Rain = 0
KOD1 250703Z 10009KT 18/17 A2996 RMK A01 T01780168  RH  094%=      5-min Rain = 0
KOD1 250704Z 10008KT 18/17 A2996 RMK A01 T01780168  RH  094%=      5-min Rain = 0
KOD1 250705Z 10008KT 18/17 A2996 RMK A01 T01790168  RH  094%=      5-min Rain = 0
KOD1 250706Z 10010KT 18/17 A2996 RMK A01 T01780168  RH  094%=      5-min Rain = 0
KOD1 250707Z 10009KT 18/17 A2996 RMK A01 T01790168  RH  094%=      5-min Rain = 0
KOD1 250708Z 10009KT 18/17 A2996 RMK A01 T01780168  RH  094%=      5-min Rain = 0
KOD1 250709Z 10009KT 18/17 A2996 RMK A01 T01780168  RH  094%=      5-min Rain = 0
KOD1 250710Z 10008KT 18/17 A2996 RMK A01 T01780168  RH  094%=      5-min Rain = 0
KOD1 250711Z 10009KT 18/17 A2996 RMK A01 T01780168  RH  094%=      5-min Rain = 0
KOD1 250712Z 10008KT 18/17 A2996 RMK A01 T01780168  RH  094%=      5-min Rain = 0
KOD1 250713Z 10010KT 18/17 A2996 RMK A01 T01780168  RH  094%=      5-min Rain = 0
KOD1 250714Z 10009KT 18/17 A2996 RMK A01 T01780168  RH  094%=      5-min Rain = 0
KOD1 250715Z 10010KT 18/17 A2996 RMK A01 T01780169  RH  094%=      5-min Rain = 0
KOD1 250716Z 10010KT 18/17 A2996 RMK A01 T01780168  RH  094%=      5-min Rain = 0
KOD1 250717Z 10008KT 18/17 A2996 RMK A01 T01780168  RH  094%=      5-min Rain = 0
KOD1 250718Z 10009KT 18/17 A2996 RMK A01 T01780168  RH  094%=      5-min Rain = 0
KOD1 250719Z 11009KT 18/17 A2996 RMK A01 T01780169  RH  094%=      5-min Rain = 0
KOD1 250720Z 11009KT 18/17 A2996 RMK A01 T01790168  RH  094%=      5-min Rain = 0
KOD1 250721Z 11009KT 18/17 A2996 RMK A01 T01790169  RH  094%=      5-min Rain = 0
KOD1 250722Z 11007KT 18/17 A2996 RMK A01 T01790168  RH  094%=      5-min Rain = 0
KOD1 250723Z 11008KT 18/17 A2996 RMK A01 T01780168  RH  094%=      5-min Rain = 0
KOD1 250724Z 12008KT 18/17 A2996 RMK A01 T01790169  RH  094%=      5-min Rain = 0
KOD1 250725Z 12007KT 18/17 A2996 RMK A01 T01780169  RH  094%=      5-min Rain = 0
KOD1 250726Z 12007KT 18/17 A2996 RMK A01 T01790169  RH  094%=      5-min Rain = 0
KOD1 250727Z 12008KT 18/17 A2996 RMK A01 T01780169  RH  094%=      5-min Rain = 0
KOD1 250728Z 12008KT 18/17 A2996 RMK A01 T01780169  RH  094%=      5-min Rain = 0
KOD1 250729Z 12009KT 18/17 A2996 RMK A01 T01780169  RH  094%=      5-min Rain = 0
KOD1 250730Z 11008KT 18/17 A2996 RMK A01 T01780169  RH  094%=      5-min Rain = 0
KOD1 250731Z 11009KT 18/17 A2996 RMK A01 T01780169  RH  094%=      5-min Rain = 0
KOD1 250732Z 12009KT 18/17 A2995 RMK A01 T01780169  RH  094%=      5-min Rain = 0
KOD1 250733Z 11009KT 18/17 A2995 RMK A01 T01780169  RH  094%=      5-min Rain = 0
KOD1 250734Z 11009KT 18/17 A2995 RMK A01 T01780169  RH  094%=      5-min Rain = 0
KOD1 250735Z 12009KT 18/17 A2995 RMK A01 T01780169  RH  094%=      5-min Rain = 0
KOD1 250736Z 11009KT 18/17 A2995 RMK A01 T01780169  RH  094%=      5-min Rain = 0
KOD1 250737Z 11009KT 18/17 A2995 RMK A01 T01780169  RH  094%=      5-min Rain = 0
KOD1 250738Z 11009KT 18/17 A2995 RMK A01 T01780169  RH  094%=      5-min Rain = 0
KOD1 250739Z 11009KT 18/17 A2995 RMK A01 T01780169  RH  094%=      5-min Rain = 0
KOD1 250740Z 12010KT 18/17 A2995 RMK A01 T01790169  RH  094%=      5-min Rain = 0
KOD1 250741Z 12009KT 18/17 A2995 RMK A01 T01790169  RH  094%=      5-min Rain = 0
KOD1 250742Z 12009KT 18/17 A2995 RMK A01 T01790169  RH  094%=      5-min Rain = 0
KOD1 250743Z 12010KT 18/17 A2995 RMK A01 T01790169  RH  094%=      5-min Rain = 0
KOD1 250744Z 12010KT 18/17 A2995 RMK A01 T01800169  RH  094%=      5-min Rain = 0
KOD1 250745Z 12009KT 18/17 A2995 RMK A01 T01800169  RH  093%=      5-min Rain = 0
KOD1 250746Z 12010KT 18/17 A2995 RMK A01 T01800169  RH  093%=      5-min Rain = 0
KOD1 250747Z 12011KT 18/17 A2995 RMK A01 T01800169  RH  093%=      5-min Rain = 0
KOD1 250748Z 12010KT 18/17 A2995 RMK A01 T01800169  RH  093%=      5-min Rain = 0
KOD1 250749Z 12010KT 18/17 A2995 RMK A01 T01800169  RH  093%=      5-min Rain = 0
KOD1 250750Z 12010KT 18/17 A2995 RMK A01 T01800169  RH  093%=      5-min Rain = 0
KOD1 250751Z 12010KT 18/17 A2995 RMK A01 T01800169  RH  093%=      5-min Rain = 0
KOD1 250752Z 12011KT 18/17 A2995 RMK A01 T01800169  RH  093%=      5-min Rain = 0
KOD1 250753Z 12012KT 18/17 A2995 RMK A01 T01800169  RH  093%=      5-min Rain = 0
KOD1 250754Z 12011KT 18/17 A2995 RMK A01 T01800169  RH  093%=      5-min Rain = 0
KOD1 250755Z 12010KT 18/17 A2995 RMK A01 T01800169  RH  093%=      5-min Rain = 0
KOD1 250756Z 11011KT 18/17 A2995 RMK A01 T01800169  RH  093%=      5-min Rain = 0
KOD1 250757Z 12012KT 18/17 A2995 RMK A01 T01800169  RH  093%=      5-min Rain = 0
KOD1 250758Z 12012KT 18/17 A2995 RMK A01 T01800169  RH  093%=      5-min Rain = 0
KOD1 250759Z 12012KT 18/17 A2995 RMK A01 T01800169  RH  093%=      5-min Rain = 0
KOD1 250800Z 12012KT 18/17 A2995 RMK A01 T01800169  RH  093%=      5-min Rain = 0
KOD1 250801Z 11012KT 18/17 A2995 RMK A01 T01800169  RH  093%=      5-min Rain = 0
KOD1 250802Z 11012KT 18/17 A2995 RMK A01 T01800169  RH  093%=      5-min Rain = 0
KOD1 250803Z 11011KT 18/17 A2994 RMK A01 T01800169  RH  093%=      5-min Rain = 0
KOD1 250804Z 11010KT 18/17 A2994 RMK A01 T01800169  RH  093%=      5-min Rain = 0
KOD1 250805Z 11010KT 18/17 A2994 RMK A01 T01800169  RH  093%=      5-min Rain = 0
KOD1 250806Z 11009KT 18/17 A2994 RMK A01 T01800169  RH  094%=      5-min Rain = 0
KOD1 250807Z 11011KT 18/17 A2994 RMK A01 T01790169  RH  094%=      5-min Rain = 0
KOD1 250808Z 11011KT 18/17 A2995 RMK A01 T01790170  RH  094%=      5-min Rain = 0
KOD1 250809Z 11010KT 18/17 A2995 RMK A01 T01790169  RH  094%=      5-min Rain = 0
KOD1 250810Z 11008KT 18/17 A2995 RMK A01 T01790169  RH  094%=      5-min Rain = 0
KOD1 250811Z 12009KT 18/17 A2995 RMK A01 T01790169  RH  094%=      5-min Rain = 0
KOD1 250812Z 11009KT 18/17 A2995 RMK A01 T01790169  RH  094%=      5-min Rain = 0
KOD1 250813Z 11010KT 18/17 A2995 RMK A01 T01790170  RH  094%=      5-min Rain = 0
KOD1 250814Z 12010KT 18/17 A2994 RMK A01 T01790170  RH  094%=      5-min Rain = 0
KOD1 250815Z 11010KT 18/17 A2994 RMK A01 T01790169  RH  094%=      5-min Rain = 0
KOD1 250816Z 12010KT 18/17 A2994 RMK A01 T01800170  RH  094%=      5-min Rain = 0
KOD1 250817Z 12010KT 18/17 A2994 RMK A01 T01800170  RH  094%=      5-min Rain = 0
KOD1 250818Z 11010KT 18/17 A2994 RMK A01 T01800170  RH  094%=      5-min Rain = 0
KOD1 250819Z 12010KT 18/17 A2994 RMK A01 T01800170  RH  094%=      5-min Rain = 0
KOD1 250820Z 12010KT 18/17 A2994 RMK A01 T01800170  RH  094%=      5-min Rain = 0
KOD1 250821Z 12009KT 18/17 A2994 RMK A01 T01800170  RH  094%=      5-min Rain = 0
KOD1 250822Z 12012KT 18/17 A2994 RMK A01 T01800170  RH  094%=      5-min Rain = 0
KOD1 250823Z 12012KT 18/17 A2994 RMK A01 T01800170  RH  094%=      5-min Rain = 0
KOD1 250824Z 12013KT 18/17 A2994 RMK A01 T01800170  RH  094%=      5-min Rain = 0
KOD1 250825Z 12013KT 18/17 A2994 RMK A01 T01810171  RH  094%=      5-min Rain = 0
KOD1 250826Z 12013KT 18/17 A2994 RMK A01 T01810170  RH  093%=      5-min Rain = 0
KOD1 250827Z 12012KT 18/17 A2994 RMK A01 T01810170  RH  093%=      5-min Rain = 0
KOD1 250828Z 12013KT 18/17 A2994 RMK A01 T01810170  RH  093%=      5-min Rain = 0
KOD1 250829Z 12012KT 18/17 A2994 RMK A01 T01810170  RH  094%=      5-min Rain = 0
KOD1 250830Z 12011KT 18/17 A2994 RMK A01 T01810170  RH  093%=      5-min Rain = 0
KOD1 250831Z 11012KT 18/17 A2994 RMK A01 T01810170  RH  093%=      5-min Rain = 0
KOD1 250832Z 12011KT 18/17 A2994 RMK A01 T01810171  RH  094%=      5-min Rain = 0
KOD1 250833Z 12013KT 18/17 A2994 RMK A01 T01810171  RH  094%=      5-min Rain = 0
KOD1 250834Z 12011KT 18/17 A2994 RMK A01 T01810171  RH  093%=      5-min Rain = 0
KOD1 250835Z 11012KT 18/17 A2994 RMK A01 T01820171  RH  093%=      5-min Rain = 0
KOD1 250836Z 12012KT 18/17 A2994 RMK A01 T01820171  RH  093%=      5-min Rain = 0
KOD1 250837Z 12011KT 18/17 A2994 RMK A01 T01820171  RH  093%=      5-min Rain = 0
KOD1 250838Z 12011KT 18/17 A2994 RMK A01 T01820171  RH  093%=      5-min Rain = 0
KOD1 250839Z 11010KT 18/17 A2994 RMK A01 T01820171  RH  093%=      5-min Rain = 0
KOD1 250840Z 11013KT 18/17 A2994 RMK A01 T01820171  RH  093%=      5-min Rain = 0
KOD1 250841Z 12014KT 18/17 A2994 RMK A01 T01830171  RH  093%=      5-min Rain = 0
KOD1 250842Z 12011KT 18/17 A2994 RMK A01 T01830171  RH  093%=      5-min Rain = 0
KOD1 250843Z 12013KT 18/17 A2994 RMK A01 T01830171  RH  093%=      5-min Rain = 0
KOD1 250844Z 12013KT 18/17 A2994 RMK A01 T01830171  RH  093%=      5-min Rain = 0
KOD1 250845Z 12012KT 18/17 A2994 RMK A01 T01830171  RH  093%=      5-min Rain = 0
KOD1 250846Z 12012KT 18/17 A2994 RMK A01 T01830171  RH  093%=      5-min Rain = 0
KOD1 250847Z 12010KT 18/17 A2994 RMK A01 T01830171  RH  093%=      5-min Rain = 0
KOD1 250848Z 12012KT 18/17 A2994 RMK A01 T01830171  RH  093%=      5-min Rain = 0
KOD1 250849Z 11011KT 18/17 A2994 RMK A01 T01830171  RH  093%=      5-min Rain = 0
KOD1 250850Z 12011KT 18/17 A2994 RMK A01 T01830171  RH  093%=      5-min Rain = 0
KOD1 250851Z 12011KT 18/17 A2994 RMK A01 T01830171  RH  093%=      5-min Rain = 0
KOD1 250852Z 12011KT 18/17 A2994 RMK A01 T01830171  RH  093%=      5-min Rain = 0
KOD1 250853Z 12011KT 18/17 A2994 RMK A01 T01830171  RH  093%=      5-min Rain = 0
KOD1 250854Z 12012KT 18/17 A2994 RMK A01 T01820171  RH  093%=      5-min Rain = 0
KOD1 250855Z 12012KT 18/17 A2994 RMK A01 T01820171  RH  093%=      5-min Rain = 0
KOD1 250856Z 12012KT 18/17 A2994 RMK A01 T01820171  RH  093%=      5-min Rain = 0
KOD1 250857Z 12013KT 18/17 A2994 RMK A01 T01830172  RH  093%=      5-min Rain = 0
KOD1 250858Z 12013KT 18/17 A2994 RMK A01 T01830172  RH  093%=      5-min Rain = 0
KOD1 250859Z 12011KT 18/17 A2994 RMK A01 T01830171  RH  093%=      5-min Rain = 0
KOD1 250900Z 12011KT 18/17 A2994 RMK A01 T01830172  RH  093%=      5-min Rain = 0
KOD1 250901Z 12013KT 18/17 A2994 RMK A01 T01830172  RH  093%=      5-min Rain = 0
KOD1 250902Z 12012KT 18/17 A2994 RMK A01 T01830172  RH  093%=      5-min Rain = 0
KOD1 250903Z 12012KT 18/17 A2994 RMK A01 T01830171  RH  093%=      5-min Rain = 0
KOD1 250904Z 12013KT 18/17 A2994 RMK A01 T01830172  RH  093%=      5-min Rain = 0
KOD1 250905Z 12013KT 18/17 A2994 RMK A01 T01840172  RH  093%=      5-min Rain = 0
KOD1 250906Z 12011KT 18/17 A2993 RMK A01 T01830172  RH  093%=      5-min Rain = 0
KOD1 250907Z 12012KT 18/17 A2993 RMK A01 T01830172  RH  093%=      5-min Rain = 0
KOD1 250908Z 12012KT 18/17 A2993 RMK A01 T01830172  RH  093%=      5-min Rain = 0
KOD1 250909Z 12012KT 18/17 A2993 RMK A01 T01830172  RH  093%=      5-min Rain = 0
KOD1 250910Z 12013KT 18/17 A2993 RMK A01 T01830172  RH  093%=      5-min Rain = 0
KOD1 250911Z 12012KT 18/17 A2993 RMK A01 T01830172  RH  093%=      5-min Rain = 0
KOD1 250912Z 12012KT 18/17 A2993 RMK A01 T01830172  RH  093%=      5-min Rain = 0
KOD1 250913Z 12013KT 18/17 A2993 RMK A01 T01830172  RH  093%=      5-min Rain = 0
KOD1 250914Z 12013KT 18/17 A2993 RMK A01 T01830172  RH  093%=      5-min Rain = 0
KOD1 250915Z 12011KT 18/17 A2993 RMK A01 T01830172  RH  093%=      5-min Rain = 0
KOD1 250916Z 12012KT 18/17 A2993 RMK A01 T01830172  RH  093%=      5-min Rain = 0
KOD1 250917Z 12013KT 18/17 A2993 RMK A01 T01830172  RH  093%=      5-min Rain = 0
KOD1 250918Z 12012KT 18/17 A2993 RMK A01 T01830172  RH  093%=      5-min Rain = 0
KOD1 250919Z 12011KT 18/17 A2993 RMK A01 T01830172  RH  093%=      5-min Rain = 0
KOD1 250920Z 12012KT 18/17 A2993 RMK A01 T01830172  RH  094%=      5-min Rain = 0
KOD1 250921Z 12012KT 18/17 A2993 RMK A01 T01830172  RH  093%=      5-min Rain = 0
KOD1 250922Z 12012KT 18/17 A2993 RMK A01 T01830172  RH  093%=      5-min Rain = 0
KOD1 250923Z 12012KT 18/17 A2993 RMK A01 T01830172  RH  093%=      5-min Rain = 0
KOD1 250924Z 12011KT 18/17 A2993 RMK A01 T01830172  RH  093%=      5-min Rain = 0
KOD1 250925Z 12012KT 18/17 A2993 RMK A01 T01830172  RH  093%=      5-min Rain = 0
KOD1 250926Z 12012KT 18/17 A2993 RMK A01 T01830172  RH  093%=      5-min Rain = 0
KOD1 250927Z 12012KT 18/17 A2993 RMK A01 T01830172  RH  093%=      5-min Rain = 0
KOD1 250928Z 12011KT 18/17 A2993 RMK A01 T01830172  RH  093%=      5-min Rain = 0
KOD1 250929Z 12013KT 18/17 A2993 RMK A01 T01830172  RH  093%=      5-min Rain = 0
KOD1 250930Z 12011KT 18/17 A2993 RMK A01 T01830172  RH  093%=      5-min Rain = 0
KOD1 250931Z 12011KT 18/17 A2993 RMK A01 T01830172  RH  093%=      5-min Rain = 0
KOD1 250932Z 12012KT 18/17 A2993 RMK A01 T01830172  RH  093%=      5-min Rain = 0
KOD1 250933Z 12013KT 18/17 A2993 RMK A01 T01830173  RH  094%=      5-min Rain = 0
KOD1 250934Z 12012KT 18/17 A2993 RMK A01 T01830173  RH  094%=      5-min Rain = 0
KOD1 250935Z 12012KT 18/17 A2993 RMK A01 T01830173  RH  094%=      5-min Rain = 0
KOD1 250936Z 12010KT 18/17 A2993 RMK A01 T01830172  RH  093%=      5-min Rain = 0
KOD1 250937Z 12011KT 18/17 A2993 RMK A01 T01830173  RH  094%=      5-min Rain = 0
KOD1 250938Z 12011KT 18/17 A2994 RMK A01 T01830172  RH  094%=      5-min Rain = 0
KOD1 250939Z 12010KT 18/17 A2993 RMK A01 T01820172  RH  094%=      5-min Rain = 0
KOD1 250940Z 12011KT 18/17 A2994 RMK A01 T01820172  RH  094%=      5-min Rain = 0
KOD1 250941Z 12012KT 18/17 A2994 RMK A01 T01830173  RH  094%=      5-min Rain = 0
KOD1 250942Z 12012KT 18/17 A2994 RMK A01 T01830173  RH  094%=      5-min Rain = 0
KOD1 250943Z 12010KT 18/17 A2994 RMK A01 T01830173  RH  094%=      5-min Rain = 0
KOD1 250944Z 12012KT 18/17 A2994 RMK A01 T01830173  RH  094%=      5-min Rain = 0
KOD1 250945Z 12012KT 18/17 A2994 RMK A01 T01830173  RH  094%=      5-min Rain = 0
KOD1 250946Z 12012KT 18/17 A2994 RMK A01 T01830173  RH  094%=      5-min Rain = 0
KOD1 250947Z 12012KT 18/17 A2994 RMK A01 T01830173  RH  094%=      5-min Rain = 0
KOD1 250948Z 12011KT 18/17 A2994 RMK A01 T01830173  RH  094%=      5-min Rain = 0
KOD1 250949Z 12011KT 18/17 A2994 RMK A01 T01830173  RH  094%=      5-min Rain = 0
KOD1 250950Z 12011KT 18/17 A2994 RMK A01 T01830173  RH  094%=      5-min Rain = 0
KOD1 250951Z 12012KT 18/17 A2994 RMK A01 T01830173  RH  094%=      5-min Rain = 0
KOD1 250952Z 12010KT 18/17 A2994 RMK A01 T01830173  RH  094%=      5-min Rain = 0
KOD1 250953Z 12011KT 18/17 A2994 RMK A01 T01830173  RH  094%=      5-min Rain = 0
KOD1 250954Z 12010KT 18/17 A2994 RMK A01 T01830173  RH  094%=      5-min Rain = 0
KOD1 250955Z 12010KT 18/17 A2994 RMK A01 T01830174  RH  094%=      5-min Rain = 0
KOD1 250956Z 12011KT 18/17 A2994 RMK A01 T01830174  RH  094%=      5-min Rain = 0
KOD1 250957Z 12012KT 18/17 A2994 RMK A01 T01830174  RH  094%=      5-min Rain = 0
KOD1 250958Z 12011KT 18/17 A2994 RMK A01 T01830173  RH  094%=      5-min Rain = 0
KOD1 250959Z 12011KT 18/17 A2994 RMK A01 T01830173  RH  094%=      5-min Rain = 0
KOD1 251000Z 12012KT 18/17 A2994 RMK A01 T01830174  RH  094%=      5-min Rain = 0
KOD1 251001Z 12011KT 18/17 A2994 RMK A01 T01830174  RH  094%=      5-min Rain = 0
KOD1 251002Z 12011KT 18/17 A2994 RMK A01 T01830174  RH  094%=      5-min Rain = 0
KOD1 251003Z 12011KT 18/17 A2994 RMK A01 T01830174  RH  094%=      5-min Rain = 0
KOD1 251004Z 12010KT 18/17 A2994 RMK A01 T01830174  RH  094%=      5-min Rain = 0
KOD1 251005Z 12011KT 18/17 A2994 RMK A01 T01830174  RH  094%=      5-min Rain = 0
KOD1 251006Z 12011KT 18/17 A2994 RMK A01 T01830173  RH  094%=      5-min Rain = 0
KOD1 251007Z 13010KT 18/17 A2994 RMK A01 T01830174  RH  094%=      5-min Rain = 0
KOD1 251008Z 12009KT 18/17 A2994 RMK A01 T01830174  RH  094%=      5-min Rain = 0
KOD1 251009Z 12009KT 18/17 A2994 RMK A01 T01830174  RH  094%=      5-min Rain = 0
KOD1 251010Z 12008KT 18/17 A2994 RMK A01 T01830174  RH  094%=      5-min Rain = 0
KOD1 251011Z 12010KT 18/17 A2994 RMK A01 T01830174  RH  095%=      5-min Rain = 0
KOD1 251012Z 12010KT 18/17 A2994 RMK A01 T01830174  RH  095%=      5-min Rain = 0
KOD1 251013Z 12009KT 18/17 A2994 RMK A01 T01830174  RH  095%=      5-min Rain = 0
KOD1 251014Z 12009KT 18/17 A2995 RMK A01 T01830174  RH  095%=      5-min Rain = 0
KOD1 251015Z 13010KT 18/17 A2994 RMK A01 T01830174  RH  095%=      5-min Rain = 0
KOD1 251016Z 13007KT 18/17 A2994 RMK A01 T01830174  RH  095%=      5-min Rain = 0
KOD1 251017Z 12009KT 18/17 A2994 RMK A01 T01830174  RH  094%=      5-min Rain = 0
KOD1 251018Z 12011KT 18/17 A2994 RMK A01 T01830174  RH  095%=      5-min Rain = 0
KOD1 251019Z 13009KT 18/18 A2994 RMK A01 T01830175  RH  095%=      5-min Rain = 0
KOD1 251020Z 12009KT 18/18 A2994 RMK A01 T01840175  RH  094%=      5-min Rain = 0
KOD1 251021Z 13007G12KT 18/17 A2994 RMK A01 T01830174  RH  094%=      5-min Rain = 0
KOD1 251022Z 13007KT 18/17 A2994 RMK A01 T01830174  RH  094%=      5-min Rain = 0
KOD1 251023Z 12008KT 18/17 A2994 RMK A01 T01830174  RH  095%=      5-min Rain = 0
KOD1 251024Z 12008KT 18/18 A2994 RMK A01 T01830175  RH  095%=      5-min Rain = 0
KOD1 251025Z 13007KT 18/17 A2994 RMK A01 T01830174  RH  095%=      5-min Rain = 0
KOD1 251026Z 12008KT 18/17 A2994 RMK A01 T01830174  RH  095%=      5-min Rain = 0
KOD1 251027Z 12008KT 18/18 A2994 RMK A01 T01830175  RH  095%=      5-min Rain = 0
KOD1 251028Z 12007KT 18/17 A2995 RMK A01 T01830174  RH  095%=      5-min Rain = 0
KOD1 251029Z 12008KT 18/17 A2995 RMK A01 T01820174  RH  095%=      5-min Rain = 0
KOD1 251030Z 13009KT 18/18 A2995 RMK A01 T01830175  RH  095%=      5-min Rain = 0
KOD1 251031Z 12009KT 18/18 A2995 RMK A01 T01830175  RH  095%=      5-min Rain = 0
KOD1 251032Z 12008KT 18/18 A2995 RMK A01 T01830175  RH  095%=      5-min Rain = 0
KOD1 251033Z 12008KT 18/18 A2995 RMK A01 T01830175  RH  095%=      5-min Rain = 0
KOD1 251034Z 12007KT 18/18 A2995 RMK A01 T01830175  RH  095%=      5-min Rain = 0
KOD1 251035Z 12007KT 18/18 A2995 RMK A01 T01830175  RH  095%=      5-min Rain = 0
KOD1 251036Z 12007KT 18/18 A2995 RMK A01 T01830175  RH  095%=      5-min Rain = 0
KOD1 251037Z 12008KT 18/18 A2995 RMK A01 T01830175  RH  095%=      5-min Rain = 0
KOD1 251038Z 12007KT 18/18 A2995 RMK A01 T01830175  RH  095%=      5-min Rain = 0
KOD1 251039Z 12007KT 18/17 A2995 RMK A01 T01820174  RH  095%=      5-min Rain = 0
KOD1 251040Z 12008KT 18/18 A2995 RMK A01 T01820175  RH  095%=      5-min Rain = 0
KOD1 251041Z 12008KT 18/18 A2995 RMK A01 T01820175  RH  095%=      5-min Rain = 0
KOD1 251042Z 12007KT 18/18 A2995 RMK A01 T01820175  RH  095%=      5-min Rain = 0
KOD1 251043Z 12008KT 18/18 A2995 RMK A01 T01820175  RH  095%=      5-min Rain = 0
KOD1 251044Z 12006KT 18/18 A2995 RMK A01 T01820175  RH  095%=      5-min Rain = 0
KOD1 251045Z 12007KT 18/18 A2995 RMK A01 T01820175  RH  095%=      5-min Rain = 0
KOD1 251046Z 12006KT 18/18 A2995 RMK A01 T01820175  RH  095%=      5-min Rain = 0
KOD1 251047Z 12007KT 18/18 A2995 RMK A01 T01820175  RH  095%=      5-min Rain = 0
KOD1 251048Z 12007KT 18/18 A2995 RMK A01 T01820175  RH  095%=      5-min Rain = 0
KOD1 251049Z 11007KT 18/18 A2995 RMK A01 T01820175  RH  095%=      5-min Rain = 0
KOD1 251050Z 11007KT 18/18 A2995 RMK A01 T01830175  RH  095%=      5-min Rain = 0
KOD1 251051Z 12007KT 18/18 A2995 RMK A01 T01830176  RH  096%=      5-min Rain = 0
KOD1 251052Z 12006KT 18/18 A2995 RMK A01 T01840176  RH  096%=      5-min Rain = 0
KOD1 251053Z 11006KT 18/18 A2995 RMK A01 T01840176  RH  095%=      5-min Rain = 0
KOD1 251054Z 11006KT 18/18 A2995 RMK A01 T01840176  RH  095%=      5-min Rain = 0
KOD1 251055Z 12006KT 18/18 A2996 RMK A01 T01840176  RH  095%=      5-min Rain = 0
KOD1 251056Z 12006KT 18/18 A2996 RMK A01 T01840176  RH  095%=      5-min Rain = 0
KOD1 251057Z 11005KT 18/18 A2996 RMK A01 T01840176  RH  095%=      5-min Rain = 0
KOD1 251058Z 11007KT 18/18 A2996 RMK A01 T01840176  RH  095%=      5-min Rain = 0
KOD1 251059Z 12006KT 18/18 A2996 RMK A01 T01840176  RH  095%=      5-min Rain = 0
KOD1 251100Z 12006KT 18/18 A2996 RMK A01 T01840177  RH  096%=      5-min Rain = 0
KOD1 251101Z 12006KT 18/18 A2996 RMK A01 T01840177  RH  096%=      5-min Rain = 0
KOD1 251102Z 12005KT 18/18 A2996 RMK A01 T01840177  RH  095%=      5-min Rain = 0
KOD1 251103Z 11006KT 18/18 A2996 RMK A01 T01840177  RH  095%=      5-min Rain = 0
KOD1 251104Z 12007KT 18/18 A2996 RMK A01 T01840177  RH  095%=      5-min Rain = 0
KOD1 251105Z 11006KT 19/18 A2996 RMK A01 T01850178  RH  095%=      5-min Rain = 0
KOD1 251106Z 12006KT 19/18 A2996 RMK A01 T01850177  RH  095%=      5-min Rain = 0
KOD1 251107Z 12006KT 19/18 A2996 RMK A01 T01850177  RH  095%=      5-min Rain = 0
KOD1 251108Z 11006KT 19/18 A2996 RMK A01 T01850177  RH  095%=      5-min Rain = 0
KOD1 251109Z 12007KT 19/18 A2996 RMK A01 T01850177  RH  095%=      5-min Rain = 0
KOD1 251110Z 11006KT 19/18 A2996 RMK A01 T01860178  RH  095%=      5-min Rain = 0
KOD1 251111Z 12006KT 19/18 A2996 RMK A01 T01860178  RH  095%=      5-min Rain = 0
KOD1 251112Z 11007KT 19/18 A2996 RMK A01 T01860178  RH  095%=      5-min Rain = 0
KOD1 251113Z 12008KT 19/18 A2996 RMK A01 T01860178  RH  095%=      5-min Rain = 0
KOD1 251114Z 12008KT 19/18 A2996 RMK A01 T01860179  RH  095%=      5-min Rain = 0
KOD1 251115Z 11008KT 19/18 A2996 RMK A01 T01860179  RH  095%=      5-min Rain = 0
KOD1 251116Z 12007KT 19/18 A2996 RMK A01 T01860179  RH  095%=      5-min Rain = 0
KOD1 251117Z 11007KT 19/18 A2996 RMK A01 T01860178  RH  095%=      5-min Rain = 0
KOD1 251118Z 11006KT 19/18 A2996 RMK A01 T01870179  RH  095%=      5-min Rain = 0
KOD1 251119Z 11007KT 19/18 A2996 RMK A01 T01870179  RH  095%=      5-min Rain = 0
KOD1 251120Z 12006KT 19/18 A2996 RMK A01 T01870179  RH  095%=      5-min Rain = 0
KOD1 251121Z 12007KT 19/18 A2997 RMK A01 T01870179  RH  095%=      5-min Rain = 0
KOD1 251122Z 12007KT 19/18 A2997 RMK A01 T01870179  RH  095%=      5-min Rain = 0
KOD1 251123Z 11007KT 19/18 A2997 RMK A01 T01870179  RH  095%=      5-min Rain = 0
KOD1 251124Z 12007KT 19/18 A2997 RMK A01 T01870179  RH  095%=      5-min Rain = 0
KOD1 251125Z 11007KT 19/18 A2997 RMK A01 T01870179  RH  095%=      5-min Rain = 0
KOD1 251126Z 12008KT 19/18 A2997 RMK A01 T01870179  RH  095%=      5-min Rain = 0
KOD1 251127Z 12008KT 19/18 A2997 RMK A01 T01870179  RH  095%=      5-min Rain = 0
KOD1 251128Z 11006KT 19/18 A2997 RMK A01 T01870179  RH  095%=      5-min Rain = 0
KOD1 251129Z 11007KT 19/18 A2997 RMK A01 T01870179  RH  095%=      5-min Rain = 0
KOD1 251130Z 11007KT 19/18 A2997 RMK A01 T01870179  RH  095%=      5-min Rain = 0
KOD1 251131Z 11007KT 19/18 A2997 RMK A01 T01870179  RH  095%=      5-min Rain = 0
KOD1 251132Z 11008KT 19/18 A2997 RMK A01 T01870179  RH  095%=      5-min Rain = 0
KOD1 251133Z 12007KT 19/18 A2997 RMK A01 T01870180  RH  095%=      5-min Rain = 0
KOD1 251134Z 11007KT 19/18 A2997 RMK A01 T01870180  RH  095%=      5-min Rain = 0
KOD1 251135Z 11007KT 19/18 A2997 RMK A01 T01880180  RH  095%=      5-min Rain = 0
KOD1 251136Z 11007KT 19/18 A2997 RMK A01 T01880180  RH  095%=      5-min Rain = 0
KOD1 251137Z 12007KT 19/18 A2997 RMK A01 T01880180  RH  095%=      5-min Rain = 0
KOD1 251138Z 11007KT 19/18 A2997 RMK A01 T01880180  RH  095%=      5-min Rain = 0
KOD1 251139Z 11008KT 19/18 A2997 RMK A01 T01880180  RH  095%=      5-min Rain = 0
KOD1 251140Z 11008KT 19/18 A2997 RMK A01 T01880180  RH  095%=      5-min Rain = 0
KOD1 251141Z 11008KT 19/18 A2997 RMK A01 T01880180  RH  095%=      5-min Rain = 0
KOD1 251142Z 11009KT 19/18 A2997 RMK A01 T01880181  RH  095%=      5-min Rain = 0
KOD1 251143Z 11008KT 19/18 A2997 RMK A01 T01880181  RH  095%=      5-min Rain = 0
KOD1 251144Z 11008KT 19/18 A2997 RMK A01 T01880180  RH  095%=      5-min Rain = 0
KOD1 251145Z 11009KT 19/18 A2997 RMK A01 T01880180  RH  095%=      5-min Rain = 0
KOD1 251146Z 11008KT 19/18 A2997 RMK A01 T01880180  RH  095%=      5-min Rain = 0
KOD1 251147Z 11008KT 19/18 A2997 RMK A01 T01880180  RH  095%=      5-min Rain = 0
KOD1 251148Z 11009KT 19/18 A2997 RMK A01 T01880180  RH  095%=      5-min Rain = 0
KOD1 251149Z 11009KT 19/18 A2997 RMK A01 T01880180  RH  095%=      5-min Rain = 0
KOD1 251150Z 11007KT 19/18 A2997 RMK A01 T01880181  RH  095%=      5-min Rain = 0
KOD1 251151Z 11008KT 19/18 A2997 RMK A01 T01880180  RH  095%=      5-min Rain = 0
KOD1 251152Z 11007KT 19/18 A2997 RMK A01 T01880180  RH  095%=      5-min Rain = 0
KOD1 251153Z 11008KT 19/18 A2997 RMK A01 T01880180  RH  095%=      5-min Rain = 0
KOD1 251154Z 11008KT 19/18 A2997 RMK A01 T01880180  RH  095%=      5-min Rain = 0
KOD1 251155Z 11008KT 19/18 A2997 RMK A01 T01880180  RH  095%=      5-min Rain = 0
KOD1 251156Z 11008KT 19/18 A2997 RMK A01 T01880180  RH  095%=      5-min Rain = 0
KOD1 251157Z 11008KT 19/18 A2997 RMK A01 T01880180  RH  096%=      5-min Rain = 0
KOD1 251158Z 11008KT 19/18 A2997 RMK A01 T01880181  RH  096%=      5-min Rain = 0
KOD1 251159Z 11008KT 19/18 A2998 RMK A01 T01880181  RH  096%=      5-min Rain = 0
KOD1 251200Z 11008KT 19/18 A2998 RMK A01 T01880181  RH  096%=      5-min Rain = 0
KOD1 251201Z 11008KT 19/18 A2998 RMK A01 T01880181  RH  096%=      5-min Rain = 0
KOD1 251202Z 11008KT 19/18 A2998 RMK A01 T01880181  RH  096%=      5-min Rain = 0
KOD1 251203Z 11008KT 19/18 A2998 RMK A01 T01880181  RH  096%=      5-min Rain = 0
KOD1 251204Z 11008KT 19/18 A2998 RMK A01 T01880181  RH  096%=      5-min Rain = 0
KOD1 251205Z 11007KT 19/18 A2998 RMK A01 T01880181  RH  096%=      5-min Rain = 0
KOD1 251206Z 11008KT 19/18 A2998 RMK A01 T01880181  RH  096%=      5-min Rain = 0
KOD1 251207Z 11008KT 19/18 A2998 RMK A01 T01880181  RH  096%=      5-min Rain = 0
KOD1 251208Z 11008KT 19/18 A2998 RMK A01 T01880181  RH  096%=      5-min Rain = 0
KOD1 251209Z 11009KT 19/18 A2998 RMK A01 T01890182  RH  096%=      5-min Rain = 0
KOD1 251210Z 11008KT 19/18 A2998 RMK A01 T01890182  RH  096%=      5-min Rain = 0
KOD1 251211Z 11008KT 19/18 A2998 RMK A01 T01890181  RH  095%=      5-min Rain = 0
KOD1 251212Z 11009KT 19/18 A2998 RMK A01 T01890182  RH  095%=      5-min Rain = 0
KOD1 251213Z 12008KT 19/18 A2998 RMK A01 T01890182  RH  095%=      5-min Rain = 0
KOD1 251214Z 11008KT 19/18 A2998 RMK A01 T01890182  RH  096%=      5-min Rain = 0
KOD1 251215Z 12008KT 19/18 A2998 RMK A01 T01890182  RH  096%=      5-min Rain = 0
KOD1 251216Z 11008KT 19/18 A2998 RMK A01 T01890182  RH  096%=      5-min Rain = 0
KOD1 251217Z 11008KT 19/18 A2998 RMK A01 T01890182  RH  096%=      5-min Rain = 0
KOD1 251218Z 12007KT 19/18 A2998 RMK A01 T01890182  RH  096%=      5-min Rain = 0
KOD1 251219Z 11008KT 19/18 A2998 RMK A01 T01890182  RH  096%=      5-min Rain = 0
KOD1 251220Z 12009KT 19/18 A2998 RMK A01 T01890182  RH  096%=      5-min Rain = 0
KOD1 251221Z 12009KT 19/18 A2998 RMK A01 T01890183  RH  096%=      5-min Rain = 0
KOD1 251222Z 12009KT 19/18 A2998 RMK A01 T01900183  RH  096%=      5-min Rain = 0
KOD1 251223Z 11009KT 19/18 A2998 RMK A01 T01900183  RH  096%=      5-min Rain = 0
KOD1 251224Z 12008KT 19/18 A2998 RMK A01 T01900183  RH  096%=      5-min Rain = 0
KOD1 251225Z 12008KT 19/18 A2998 RMK A01 T01900183  RH  096%=      5-min Rain = 0
KOD1 251226Z 12008KT 19/18 A2998 RMK A01 T01900183  RH  096%=      5-min Rain = 0
KOD1 251227Z 12009KT 19/18 A2998 RMK A01 T01910184  RH  096%=      5-min Rain = 0
KOD1 251228Z 12008KT 19/18 A2998 RMK A01 T01910183  RH  095%=      5-min Rain = 0
KOD1 251229Z 12009KT 19/18 A2998 RMK A01 T01910183  RH  095%=      5-min Rain = 0
KOD1 251230Z 12009KT 19/18 A2998 RMK A01 T01910184  RH  095%=      5-min Rain = 0
KOD1 251231Z 12009KT 19/18 A2998 RMK A01 T01910184  RH  095%=      5-min Rain = 0
KOD1 251232Z 12009KT 19/18 A2998 RMK A01 T01920184  RH  095%=      5-min Rain = 0
KOD1 251233Z 12009KT 19/18 A2998 RMK A01 T01920184  RH  095%=      5-min Rain = 0
KOD1 251234Z 12010KT 19/18 A2998 RMK A01 T01920184  RH  095%=      5-min Rain = 0
KOD1 251235Z 12008KT 19/18 A2998 RMK A01 T01920184  RH  095%=      5-min Rain = 0
KOD1 251236Z 12009KT 19/18 A2998 RMK A01 T01920184  RH  095%=      5-min Rain = 0
KOD1 251237Z 12008KT 19/19 A2998 RMK A01 T01930185  RH  095%=      5-min Rain = 0
KOD1 251238Z 12009KT 19/19 A2998 RMK A01 T01930185  RH  095%=      5-min Rain = 0
KOD1 251239Z 13009KT 19/19 A2998 RMK A01 T01940186  RH  095%=      5-min Rain = 0
KOD1 251240Z 12008KT 19/19 A2998 RMK A01 T01940186  RH  095%=      5-min Rain = 0
KOD1 251241Z 12009KT 19/19 A2999 RMK A01 T01940186  RH  095%=      5-min Rain = 0
KOD1 251242Z 12008KT 20/19 A2999 RMK A01 T01950186  RH  095%=      5-min Rain = 0
KOD1 251243Z 12007KT 20/19 A2999 RMK A01 T01950186  RH  095%=      5-min Rain = 0
KOD1 251244Z 12008KT 20/19 A2999 RMK A01 T01960187  RH  094%=      5-min Rain = 0
KOD1 251245Z 12007KT 20/19 A2999 RMK A01 T01960187  RH  094%=      5-min Rain = 0
KOD1 251246Z 12008KT 20/19 A2999 RMK A01 T01960187  RH  094%=      5-min Rain = 0
KOD1 251247Z 12007KT 20/19 A2999 RMK A01 T01960187  RH  094%=      5-min Rain = 0
KOD1 251248Z 12007KT 20/19 A2999 RMK A01 T01970187  RH  094%=      5-min Rain = 0
KOD1 251249Z 12008KT 20/19 A2999 RMK A01 T01970187  RH  094%=      5-min Rain = 0
KOD1 251250Z 11007KT 20/19 A2999 RMK A01 T01960187  RH  094%=      5-min Rain = 0
KOD1 251251Z 12008KT 20/19 A2999 RMK A01 T01970188  RH  095%=      5-min Rain = 0
KOD1 251252Z 11008KT 20/19 A2999 RMK A01 T01970188  RH  094%=      5-min Rain = 0
KOD1 251253Z 12007KT 20/19 A2999 RMK A01 T01980189  RH  094%=      5-min Rain = 0
KOD1 251254Z 12007KT 20/19 A2999 RMK A01 T01990189  RH  094%=      5-min Rain = 0
KOD1 251255Z 12007KT 20/19 A2999 RMK A01 T01990190  RH  094%=      5-min Rain = 0
KOD1 251256Z 12008KT 20/19 A2999 RMK A01 T01990189  RH  094%=      5-min Rain = 0
KOD1 251257Z 13008KT 20/19 A2999 RMK A01 T02000189  RH  094%=      5-min Rain = 0
KOD1 251258Z 12008KT 20/19 A2999 RMK A01 T02000190  RH  094%=      5-min Rain = 0
KOD1 251259Z 13008KT 20/19 A2999 RMK A01 T02010191  RH  094%=      5-min Rain = 0
KOD1 251300Z 12007KT 20/19 A2999 RMK A01 T02020192  RH  093%=      5-min Rain = 0
KOD1 251301Z 13008KT 20/19 A2999 RMK A01 T02030191  RH  093%=      5-min Rain = 0
KOD1 251302Z 13007KT 20/19 A2999 RMK A01 T02040192  RH  093%=      5-min Rain = 0
KOD1 251303Z 13009KT 21/19 A2999 RMK A01 T02050192  RH  092%=      5-min Rain = 0
KOD1 251304Z 13009KT 21/19 A2999 RMK A01 T02060192  RH  092%=      5-min Rain = 0
KOD1 251305Z 13008KT 21/19 A2999 RMK A01 T02070193  RH  092%=      5-min Rain = 0
KOD1 251306Z 14010KT 21/19 A2999 RMK A01 T02080194  RH  092%=      5-min Rain = 0
KOD1 251307Z 14010KT 21/19 A2999 RMK A01 T02090193  RH  091%=      5-min Rain = 0
KOD1 251308Z 13009KT 21/19 A2999 RMK A01 T02100194  RH  091%=      5-min Rain = 0
KOD1 251309Z 14009KT 21/20 A2999 RMK A01 T02110195  RH  091%=      5-min Rain = 0
KOD1 251310Z 14010KT 21/19 A2999 RMK A01 T02110194  RH  090%=      5-min Rain = 0
KOD1 251311Z 14011KT 21/19 A2999 RMK A01 T02120194  RH  090%=      5-min Rain = 0
KOD1 251312Z 14011KT 21/19 A2999 RMK A01 T02120194  RH  089%=      5-min Rain = 0
KOD1 251313Z 14008KT 21/20 A2999 RMK A01 T02130195  RH  089%=      5-min Rain = 0
KOD1 251314Z 14011KT 21/20 A2999 RMK A01 T02130195  RH  089%=      5-min Rain = 0
KOD1 251315Z 14011KT 21/19 A2999 RMK A01 T02140194  RH  089%=      5-min Rain = 0
KOD1 251316Z 14008KT 21/20 A2999 RMK A01 T02140195  RH  089%=      5-min Rain = 0
KOD1 251317Z 14012KT 21/20 A2999 RMK A01 T02140195  RH  089%=      5-min Rain = 0
KOD1 251318Z 14011KT 21/19 A2999 RMK A01 T02130194  RH  089%=      5-min Rain = 0
KOD1 251319Z 15011KT 21/20 A2999 RMK A01 T02130195  RH  089%=      5-min Rain = 0
KOD1 251320Z 14010KT 21/20 A2999 RMK A01 T02130195  RH  089%=      5-min Rain = 0
KOD1 251321Z 14009KT 21/20 A2999 RMK A01 T02140195  RH  089%=      5-min Rain = 0
KOD1 251322Z 14010KT 21/20 A2999 RMK A01 T02140196  RH  089%=      5-min Rain = 0
KOD1 251323Z 14011KT 21/20 A2999 RMK A01 T02140196  RH  089%=      5-min Rain = 0
KOD1 251324Z 14010KT 22/20 A2999 RMK A01 T02150197  RH  089%=      5-min Rain = 0
KOD1 251325Z 14011KT 22/20 A2999 RMK A01 T02170197  RH  089%=      5-min Rain = 0
KOD1 251326Z 14012KT 22/20 A2999 RMK A01 T02180197  RH  088%=      5-min Rain = 0
KOD1 251327Z 14009KT 22/20 A2999 RMK A01 T02180197  RH  088%=      5-min Rain = 0
KOD1 251328Z 14012KT 22/20 A2999 RMK A01 T02190199  RH  088%=      5-min Rain = 0
KOD1 251329Z 14012KT 22/20 A2999 RMK A01 T02200197  RH  087%=      5-min Rain = 0
KOD1 251330Z 14011KT 22/20 A2999 RMK A01 T02200198  RH  087%=      5-min Rain = 0
KOD1 251331Z 15010G15KT 22/20 A2999 RMK A01 T02210199  RH  087%=      5-min Rain = 0
KOD1 251332Z 14011KT 22/20 A2999 RMK A01 T02210199  RH  087%=      5-min Rain = 0
KOD1 251333Z 14012KT 22/20 A2999 RMK A01 T02210198  RH  087%=      5-min Rain = 0
KOD1 251334Z 15012KT 22/20 A30 RMK A01 T02200196  RH  086%=      5-min Rain = 0
KOD1 251335Z 15011KT 22/20 A30 RMK A01 T02200197  RH  087%=      5-min Rain = 0
KOD1 251336Z 14011KT 22/20 A30 RMK A01 T02210198  RH  087%=      5-min Rain = 0
KOD1 251337Z 15011KT 22/20 A30 RMK A01 T02220199  RH  087%=      5-min Rain = 0
KOD1 251338Z 14013KT 22/20 A30 RMK A01 T02220198  RH  086%=      5-min Rain = 0
KOD1 251339Z 14013G18KT 22/20 A30 RMK A01 T02220197  RH  086%=      5-min Rain = 0
KOD1 251340Z 15012KT 22/20 A30 RMK A01 T02220196  RH  085%=      5-min Rain = 0
KOD1 251341Z 15011KT 22/20 A30 RMK A01 T02220198  RH  086%=      5-min Rain = 0
KOD1 251342Z 15013KT 22/20 A30 RMK A01 T02210197  RH  086%=      5-min Rain = 0
KOD1 251343Z 15014KT 22/20 A30 RMK A01 T02200196  RH  086%=      5-min Rain = 0
KOD1 251344Z 14013KT 22/20 A30 RMK A01 T02190195  RH  086%=      5-min Rain = 0
KOD1 251345Z 15013KT 22/20 A30 RMK A01 T02190196  RH  086%=      5-min Rain = 0
KOD1 251346Z 15011KT 22/20 A30 RMK A01 T02200198  RH  087%=      5-min Rain = 0
KOD1 251347Z 16014KT 22/20 A30 RMK A01 T02200196  RH  087%=      5-min Rain = 0
KOD1 251348Z 14012KT 22/20 A30 RMK A01 T02190197  RH  087%=      5-min Rain = 0
KOD1 251349Z 15014KT 22/20 A30 RMK A01 T02190197  RH  087%=      5-min Rain = 0
KOD1 251350Z 14014KT 22/20 A30 RMK A01 T02190196  RH  087%=      5-min Rain = 0
KOD1 251351Z 15013KT 22/20 A30 RMK A01 T02190196  RH  087%=      5-min Rain = 0
KOD1 251352Z 15013KT 22/20 A30 RMK A01 T02200197  RH  087%=      5-min Rain = 0
KOD1 251353Z 15011KT 22/20 A30 RMK A01 T02200198  RH  087%=      5-min Rain = 0
KOD1 251354Z 15013KT 22/20 A30 RMK A01 T02210199  RH  087%=      5-min Rain = 0
KOD1 251355Z 15015KT 22/20 A30 RMK A01 T02220198  RH  087%=      5-min Rain = 0
KOD1 251356Z 15015KT 22/20 A30 RMK A01 T02220197  RH  086%=      5-min Rain = 0
KOD1 251357Z 15011KT 22/20 A30 RMK A01 T02220197  RH  086%=      5-min Rain = 0
KOD1 251358Z 15011KT 22/20 A30 RMK A01 T02230201  RH  087%=      5-min Rain = 0
KOD1 251359Z 15012KT 23/20 A30 RMK A01 T02250202  RH  087%=      5-min Rain = 0
KOD1 251400Z 15013KT 23/20 A30 RMK A01 T02250199  RH  085%=      5-min Rain = 0
KOD1 251401Z 15012KT 22/20 A30 RMK A01 T02240199  RH  086%=      5-min Rain = 0
KOD1 251402Z 15011KT 22/20 A30 RMK A01 T02240200  RH  086%=      5-min Rain = 0
KOD1 251403Z 15014KT 22/20 A30 RMK A01 T02240200  RH  086%=      5-min Rain = 0
KOD1 251404Z 15015KT 22/20 A30 RMK A01 T02230199  RH  086%=      5-min Rain = 0
KOD1 251405Z 15014KT 22/20 A30 RMK A01 T02230198  RH  086%=      5-min Rain = 0
KOD1 251406Z 15011KT 22/20 A30 RMK A01 T02230198  RH  086%=      5-min Rain = 0
KOD1 251407Z 15012KT 22/20 A30 RMK A01 T02240201  RH  087%=      5-min Rain = 0
KOD1 251408Z 15015KT 22/20 A30 RMK A01 T02240199  RH  086%=      5-min Rain = 0
KOD1 251409Z 15015KT 22/20 A30 RMK A01 T02220198  RH  086%=      5-min Rain = 0
KOD1 251410Z 16014KT 22/20 A30 RMK A01 T02220199  RH  087%=      5-min Rain = 0
KOD1 251411Z 16014KT 22/20 A30 RMK A01 T02220198  RH  087%=      5-min Rain = 0
KOD1 251412Z 16014KT 22/20 A30 RMK A01 T02220198  RH  086%=      5-min Rain = 0
KOD1 251413Z 16013KT 22/20 A30 RMK A01 T02220198  RH  086%=      5-min Rain = 0
KOD1 251414Z 16013KT 22/20 A30 RMK A01 T02220199  RH  087%=      5-min Rain = 0
KOD1 251415Z 16012KT 22/20 A30 RMK A01 T02230200  RH  087%=      5-min Rain = 0
KOD1 251416Z 16013KT 22/20 A30 RMK A01 T02230201  RH  087%=      5-min Rain = 0
KOD1 251417Z 16012KT 22/20 A30 RMK A01 T02230200  RH  087%=      5-min Rain = 0
KOD1 251418Z 16013KT 22/20 A30 RMK A01 T02230200  RH  087%=      5-min Rain = 0
KOD1 251419Z 15012KT 22/20 A30 RMK A01 T02240200  RH  087%=      5-min Rain = 0
KOD1 251420Z 16015KT 23/20 A30 RMK A01 T02250201  RH  086%=      5-min Rain = 0
KOD1 251421Z 16013KT 23/20 A30 RMK A01 T02270201  RH  085%=      5-min Rain = 0
KOD1 251422Z 16010KT 23/21 A30 RMK A01 T02300206  RH  086%=      5-min Rain = 0
KOD1 251423Z 16014KT 23/21 A30 RMK A01 T02320206  RH  085%=      5-min Rain = 0
KOD1 251424Z 16018KT 23/20 A30 RMK A01 T02330204  RH  083%=      5-min Rain = 0
KOD1 251425Z 16015KT 23/20 A30 RMK A01 T02330202  RH  083%=      5-min Rain = 0
KOD1 251426Z 16015KT 23/20 A30 RMK A01 T02330203  RH  083%=      5-min Rain = 0
KOD1 251427Z 16016KT 23/20 A30 RMK A01 T02330201  RH  082%=      5-min Rain = 0
KOD1 251428Z 16014KT 23/20 A30 RMK A01 T02320203  RH  084%=      5-min Rain = 0
KOD1 251429Z 16013KT 23/21 A30 RMK A01 T02330205  RH  084%=      5-min Rain = 0
KOD1 251430Z 15015KT 23/20 A30 RMK A01 T02330204  RH  084%=      5-min Rain = 0
KOD1 251431Z 16018KT 23/20 A30 RMK A01 T02330202  RH  083%=      5-min Rain = 0
KOD1 251432Z 16017KT 23/20 A30 RMK A01 T02320201  RH  083%=      5-min Rain = 0
KOD1 251433Z 17017KT 23/20 A30 RMK A01 T02320201  RH  083%=      5-min Rain = 0
KOD1 251434Z 16017KT 23/20 A30 RMK A01 T02310200  RH  083%=      5-min Rain = 0
KOD1 251435Z 16016KT 23/20 A30 RMK A01 T02300200  RH  083%=      5-min Rain = 0
KOD1 251436Z 16016G21KT 23/20 A30 RMK A01 T02310203  RH  084%=      5-min Rain = 0
KOD1 251437Z 16017KT 23/20 A30 RMK A01 T02320200  RH  082%=      5-min Rain = 0
KOD1 251438Z 17016KT 23/20 A30 RMK A01 T02330201  RH  082%=      5-min Rain = 0
KOD1 251439Z 16016KT 23/20 A30 RMK A01 T02320201  RH  083%=      5-min Rain = 0
KOD1 251440Z 16015KT 23/20 A30 RMK A01 T02320202  RH  083%=      5-min Rain = 0
KOD1 251441Z 16016KT 23/20 A30 RMK A01 T02330202  RH  083%=      5-min Rain = 0
KOD1 251442Z 16017KT 23/20 A30 RMK A01 T02340202  RH  082%=      5-min Rain = 0
KOD1 251443Z 16017KT 24/20 A30 RMK A01 T02350204  RH  083%=      5-min Rain = 0
KOD1 251444Z 16018KT 24/20 A30 RMK A01 T02350203  RH  082%=      5-min Rain = 0
KOD1 251445Z 16018KT 24/20 A30 RMK A01 T02350202  RH  082%=      5-min Rain = 0
KOD1 251446Z 16016G21KT 24/20 A30 RMK A01 T02350203  RH  082%=      5-min Rain = 0
KOD1 251447Z 17015KT 24/21 A30 RMK A01 T02360205  RH  082%=      5-min Rain = 0
KOD1 251448Z 17016KT 24/20 A30 RMK A01 T02370204  RH  082%=      5-min Rain = 0
KOD1 251449Z 16014KT 24/20 A30 RMK A01 T02360204  RH  082%=      5-min Rain = 0
KOD1 251450Z 17014KT 24/20 A30 RMK A01 T02360204  RH  082%=      5-min Rain = 0
KOD1 251451Z 16014KT 24/20 A30 RMK A01 T02350204  RH  083%=      5-min Rain = 0
KOD1 251452Z 17017KT 23/20 A30 RMK A01 T02340202  RH  082%=      5-min Rain = 0
KOD1 251453Z 16013KT 23/20 A30 RMK A01 T02330202  RH  083%=      5-min Rain = 0
KOD1 251454Z 17014KT 24/21 A30 RMK A01 T02350205  RH  083%=      5-min Rain = 0
KOD1 251455Z 16015KT 24/20 A30 RMK A01 T02350204  RH  083%=      5-min Rain = 0
KOD1 251456Z 17016KT 24/20 A30 RMK A01 T02360203  RH  082%=      5-min Rain = 0
KOD1 251457Z 17015KT 24/20 A30 RMK A01 T02360203  RH  082%=      5-min Rain = 0
KOD1 251458Z 16015KT 24/20 A30 RMK A01 T02360204  RH  082%=      5-min Rain = 0
KOD1 251459Z 16017G22KT 24/21 A30 RMK A01 T02380205  RH  082%=      5-min Rain = 0
KOD1 251500Z 17017KT 24/20 A30 RMK A01 T02380203  RH  081%=      5-min Rain = 0
KOD1 251501Z 17017KT 24/20 A30 RMK A01 T02370203  RH  081%=      5-min Rain = 0
KOD1 251502Z 17014KT 24/20 A30 RMK A01 T02370204  RH  082%=      5-min Rain = 0
KOD1 251503Z 16013KT 24/21 A30 RMK A01 T02390206  RH  082%=      5-min Rain = 0
KOD1 251504Z 17014KT 24/21 A30 RMK A01 T02390206  RH  081%=      5-min Rain = 0
KOD1 251505Z 16018KT 24/21 A30 RMK A01 T02390205  RH  081%=      5-min Rain = 0
KOD1 251506Z 17018KT 24/21 A30 RMK A01 T02390205  RH  081%=      5-min Rain = 0
KOD1 251507Z 16019KT 24/20 A30 RMK A01 T02390203  RH  080%=      5-min Rain = 0
KOD1 251508Z 16019KT 24/20 A30 RMK A01 T02390203  RH  080%=      5-min Rain = 0
KOD1 251509Z 16016KT 24/20 A30 RMK A01 T02410204  RH  080%=      5-min Rain = 0
KOD1 251510Z 16016KT 24/21 A30 RMK A01 T02410205  RH  080%=      5-min Rain = 0
KOD1 251511Z 16018KT 24/20 A30 RMK A01 T02410204  RH  079%=      5-min Rain = 0
KOD1 251512Z 17017KT 24/21 A30 RMK A01 T02410205  RH  080%=      5-min Rain = 0
KOD1 251513Z 17016KT 24/21 A30 RMK A01 T02410205  RH  080%=      5-min Rain = 0
KOD1 251514Z 17017KT 24/21 A30 RMK A01 T02420205  RH  080%=      5-min Rain = 0
KOD1 251515Z 16016KT 24/21 A30 RMK A01 T02420207  RH  080%=      5-min Rain = 0
KOD1 251516Z 16015KT 24/21 A30 RMK A01 T02440206  RH  079%=      5-min Rain = 0
KOD1 251517Z 16016KT 25/21 A30 RMK A01 T02450208  RH  080%=      5-min Rain = 0
KOD1 251518Z 16018KT 25/21 A30 RMK A01 T02450207  RH  079%=      5-min Rain = 0
KOD1 251519Z 15018KT 25/21 A30 RMK A01 T02460208  RH  079%=      5-min Rain = 0
KOD1 251520Z 16019KT 25/21 A30 RMK A01 T02450205  RH  078%=      5-min Rain = 0
KOD1 251521Z 17018KT 24/21 A30 RMK A01 T02440205  RH  079%=      5-min Rain = 0
KOD1 251522Z 17015KT 24/20 A30 RMK A01 T02430204  RH  079%=      5-min Rain = 0
KOD1 251523Z 17015KT 24/21 A30 RMK A01 T02440207  RH  080%=      5-min Rain = 0
KOD1 251524Z 17014KT 25/21 A30 RMK A01 T02450208  RH  080%=      5-min Rain = 0
KOD1 251525Z 16017KT 25/21 A30 RMK A01 T02470209  RH  079%=      5-min Rain = 0
KOD1 251526Z 16017KT 25/21 A30 RMK A01 T02470208  RH  078%=      5-min Rain = 0
KOD1 251527Z 16015KT 25/21 A30 RMK A01 T02470206  RH  078%=      5-min Rain = 0
KOD1 251528Z 17013KT 25/21 A30 RMK A01 T02480210  RH  079%=      5-min Rain = 0
KOD1 251529Z 16015G22KT 25/21 A30 RMK A01 T02490210  RH  079%=      5-min Rain = 0
KOD1 251530Z 17020KT 25/21 A30 RMK A01 T02490207  RH  077%=      5-min Rain = 0
KOD1 251531Z 16018KT 25/21 A30 RMK A01 T02470206  RH  078%=      5-min Rain = 0
KOD1 251532Z 16019KT 25/21 A30 RMK A01 T02470206  RH  078%=      5-min Rain = 0
KOD1 251533Z 17018KT 25/21 A30 RMK A01 T02460205  RH  078%=      5-min Rain = 0
KOD1 251534Z 17017KT 25/21 A30 RMK A01 T02460205  RH  078%=      5-min Rain = 0
KOD1 251535Z 17017KT 25/21 A30 RMK A01 T02460205  RH  078%=      5-min Rain = 0
KOD1 251536Z 17015KT 25/21 A30 RMK A01 T02460206  RH  079%=      5-min Rain = 0
KOD1 251537Z 16015KT 25/21 A30 RMK A01 T02490211  RH  079%=      5-min Rain = 0
KOD1 251538Z 16016G21KT 25/21 A30 RMK A01 T02510211  RH  078%=      5-min Rain = 0
KOD1 251539Z 16019KT 25/21 A30 RMK A01 T02510208  RH  077%=      5-min Rain = 0
KOD1 251540Z 17015KT 25/21 A30 RMK A01 T02500208  RH  077%=      5-min Rain = 0
KOD1 251541Z 17019KT 25/21 A30 RMK A01 T02500208  RH  078%=      5-min Rain = 0
KOD1 251542Z 17019KT 25/21 A30 RMK A01 T02490206  RH  077%=      5-min Rain = 0
KOD1 251543Z 17018KT 25/21 A30 RMK A01 T02480206  RH  078%=      5-min Rain = 0
KOD1 251544Z 17016KT 25/21 A30 RMK A01 T02490208  RH  078%=      5-min Rain = 0
KOD1 251545Z 18018KT 25/21 A30 RMK A01 T02500208  RH  077%=      5-min Rain = 0
KOD1 251546Z 17016KT 25/21 A30 RMK A01 T02510209  RH  078%=      5-min Rain = 0
KOD1 251547Z 16016KT 25/21 A30 RMK A01 T02530211  RH  078%=      5-min Rain = 0
KOD1 251548Z 17018KT 25/21 A30 RMK A01 T02540210  RH  077%=      5-min Rain = 0
KOD1 251549Z 17015KT 25/21 A30 RMK A01 T02540211  RH  077%=      5-min Rain = 0
KOD1 251550Z 17019KT 25/21 A30 RMK A01 T02540207  RH  075%=      5-min Rain = 0
KOD1 251551Z 17016KT 25/21 A30 RMK A01 T02520206  RH  076%=      5-min Rain = 0
KOD1 251552Z 17015KT 25/21 A30 RMK A01 T02510208  RH  077%=      5-min Rain = 0
KOD1 251553Z 18017KT 25/21 A30 RMK A01 T02510209  RH  077%=      5-min Rain = 0
KOD1 251554Z 18017KT 25/21 A30 RMK A01 T02510207  RH  076%=      5-min Rain = 0
KOD1 251555Z 18017KT 25/21 A30 RMK A01 T02530210  RH  077%=      5-min Rain = 0
KOD1 251556Z 17019KT 26/21 A30 RMK A01 T02550210  RH  076%=      5-min Rain = 0
KOD1 251557Z 18018KT 26/21 A30 RMK A01 T02560210  RH  076%=      5-min Rain = 0
KOD1 251558Z 17018KT 26/21 A30 RMK A01 T02550208  RH  075%=      5-min Rain = 0
KOD1 251559Z 17014KT 26/21 A30 RMK A01 T02550210  RH  076%=      5-min Rain = 0
KOD1 251600Z 17014KT 26/21 A30 RMK A01 T02580214  RH  077%=      5-min Rain = 0
KOD1 251601Z 18012KT 26/21 A30 RMK A01 T02580212  RH  076%=      5-min Rain = 0
KOD1 251602Z 17015KT 26/21 A30 RMK A01 T02590213  RH  076%=      5-min Rain = 0
KOD1 251603Z 18015KT 26/21 A30 RMK A01 T02580211  RH  075%=      5-min Rain = 0
KOD1 251604Z 17016KT 26/21 A30 RMK A01 T02580211  RH  075%=      5-min Rain = 0
KOD1 251605Z 17016KT 26/21 A30 RMK A01 T02570208  RH  074%=      5-min Rain = 0
KOD1 251606Z 17016KT 26/21 A30 RMK A01 T02570211  RH  076%=      5-min Rain = 0
KOD1 251607Z 17015KT 26/21 A30 RMK A01 T02580212  RH  076%=      5-min Rain = 0
KOD1 251608Z 17017KT 26/21 A30 RMK A01 T02590212  RH  075%=      5-min Rain = 0
KOD1 251609Z 17017KT 26/21 A30 RMK A01 T02590211  RH  075%=      5-min Rain = 0
KOD1 251610Z 18019KT 26/21 A30 RMK A01 T02590212  RH  075%=      5-min Rain = 0
KOD1 251611Z 17018KT 26/21 A30 RMK A01 T02600212  RH  075%=      5-min Rain = 0
KOD1 251612Z 17017KT 26/21 A30 RMK A01 T02590209  RH  074%=      5-min Rain = 0
KOD1 251613Z 16016KT 26/21 A30 RMK A01 T02590212  RH  075%=      5-min Rain = 0
KOD1 251614Z 18015KT 26/21 A30 RMK A01 T02610213  RH  075%=      5-min Rain = 0
KOD1 251615Z 19018KT 26/21 A30 RMK A01 T02600209  RH  073%=      5-min Rain = 0
KOD1 251616Z 17015G21KT 26/21 A2999 RMK A01 T02590212  RH  075%=      5-min Rain = 0
KOD1 251617Z 17019KT 26/21 A2999 RMK A01 T02610212  RH  074%=      5-min Rain = 0
KOD1 251618Z 16019KT 26/21 A2999 RMK A01 T02610210  RH  073%=      5-min Rain = 0
KOD1 251619Z 17018KT 26/21 A2999 RMK A01 T02630214  RH  075%=      5-min Rain = 0
KOD1 251620Z 17018KT 26/21 A2999 RMK A01 T02630211  RH  073%=      5-min Rain = 0
KOD1 251621Z 17019KT 26/21 A2999 RMK A01 T02630213  RH  074%=      5-min Rain = 0
KOD1 251622Z 18020KT 26/21 A2999 RMK A01 T02630211  RH  073%=      5-min Rain = 0
KOD1 251623Z 18017KT 26/21 A2999 RMK A01 T02630212  RH  073%=      5-min Rain = 0
KOD1 251624Z 18019KT 26/21 A2999 RMK A01 T02630211  RH  073%=      5-min Rain = 0
KOD1 251625Z 18017KT 26/21 A2999 RMK A01 T02620211  RH  073%=      5-min Rain = 0
KOD1 251626Z 18017KT 26/21 A2999 RMK A01 T02610212  RH  074%=      5-min Rain = 0
KOD1 251627Z 17016G22KT 26/21 A30 RMK A01 T02620214  RH  075%=      5-min Rain = 0
KOD1 251628Z 18019G25KT 27/21 A30 RMK A01 T02650212  RH  073%=      5-min Rain = 0
KOD1 251629Z 18017KT 27/21 A2999 RMK A01 T02650210  RH  071%=      5-min Rain = 0
KOD1 251630Z 17018KT 26/21 A30 RMK A01 T02640210  RH  072%=      5-min Rain = 0
KOD1 251631Z 17015KT 27/21 A30 RMK A01 T02650213  RH  073%=      5-min Rain = 0
KOD1 251632Z 17017KT 27/21 A2999 RMK A01 T02660214  RH  073%=      5-min Rain = 0
KOD1 251633Z 18015KT 27/21 A30 RMK A01 T02660213  RH  073%=      5-min Rain = 0
KOD1 251634Z 18014KT 27/22 A30 RMK A01 T02660216  RH  074%=      5-min Rain = 0
KOD1 251635Z 18016KT 27/21 A30 RMK A01 T02650213  RH  073%=      5-min Rain = 0
KOD1 251636Z 18013KT 27/22 A30 RMK A01 T02660216  RH  074%=      5-min Rain = 0
KOD1 251637Z 17015KT 27/22 A30 RMK A01 T02670216  RH  073%=      5-min Rain = 0
KOD1 251638Z 17017KT 27/21 A30 RMK A01 T02660212  RH  072%=      5-min Rain = 0
KOD1 251639Z 18015KT 27/22 A30 RMK A01 T02650215  RH  074%=      5-min Rain = 0
KOD1 251640Z 17017KT 27/21 A30 RMK A01 T02660213  RH  073%=      5-min Rain = 0
KOD1 251641Z 17017KT 27/21 A30 RMK A01 T02650211  RH  072%=      5-min Rain = 0
KOD1 251642Z 18018KT 27/21 A30 RMK A01 T02680214  RH  072%=      5-min Rain = 0
KOD1 251643Z 17019KT 27/21 A30 RMK A01 T02680211  RH  071%=      5-min Rain = 0
KOD1 251644Z 17019KT 27/21 A30 RMK A01 T02670211  RH  071%=      5-min Rain = 0
KOD1 251645Z 18016KT 27/21 A30 RMK A01 T02660212  RH  072%=      5-min Rain = 0
KOD1 251646Z 19016KT 27/22 A30 RMK A01 T02670215  RH  073%=      5-min Rain = 0
KOD1 251647Z 19017G22KT 27/21 A30 RMK A01 T02670211  RH  071%=      5-min Rain = 0
KOD1 251648Z 18015KT 27/21 A30 RMK A01 T02660210  RH  072%=      5-min Rain = 0
KOD1 251649Z 18019G25KT 27/21 A30 RMK A01 T02670213  RH  072%=      5-min Rain = 0
KOD1 251650Z 17020KT 27/21 A30 RMK A01 T02660210  RH  071%=      5-min Rain = 0
KOD1 251651Z 18019KT 27/21 A30 RMK A01 T02660209  RH  071%=      5-min Rain = 0
KOD1 251652Z 18014KT 27/21 A30 RMK A01 T02650209  RH  072%=      5-min Rain = 0
KOD1 251653Z 17017KT 27/22 A30 RMK A01 T02670215  RH  073%=      5-min Rain = 0
KOD1 251654Z 17017KT 27/22 A30 RMK A01 T02690216  RH  073%=      5-min Rain = 0
KOD1 251655Z 17016KT 27/21 A30 RMK A01 T02700214  RH  072%=      5-min Rain = 0
KOD1 251656Z 19018G23KT 27/21 A30 RMK A01 T02700214  RH  072%=      5-min Rain = 0
KOD1 251657Z 18019G24KT 27/21 A30 RMK A01 T02670210  RH  071%=      5-min Rain = 0
KOD1 251658Z 17014KT 27/21 A30 RMK A01 T02660212  RH  072%=      5-min Rain = 0
KOD1 251659Z 17015KT 27/21 A30 RMK A01 T02670214  RH  073%=      5-min Rain = 0
KOD1 251700Z 17013KT 27/21 A30 RMK A01 T02670213  RH  072%=      5-min Rain = 0
KOD1 251701Z 17011KT 27/22 A30 RMK A01 T02680217  RH  074%=      5-min Rain = 0
KOD1 251702Z 17014KT 27/22 A30 RMK A01 T02680215  RH  073%=      5-min Rain = 0
KOD1 251703Z 17017KT 27/21 A30 RMK A01 T02670212  RH  072%=      5-min Rain = 0
KOD1 251704Z 17016KT 27/21 A30 RMK A01 T02670212  RH  072%=      5-min Rain = 0
KOD1 251705Z 17015KT 27/22 A30 RMK A01 T02670216  RH  074%=      5-min Rain = 0
KOD1 251706Z 17016KT 27/21 A30 RMK A01 T02670213  RH  072%=      5-min Rain = 0
KOD1 251707Z 18017KT 27/21 A30 RMK A01 T02670211  RH  071%=      5-min Rain = 0
KOD1 251708Z 18014KT 27/21 A30 RMK A01 T02670214  RH  073%=      5-min Rain = 0
KOD1 251709Z 17015KT 27/21 A30 RMK A01 T02670214  RH  072%=      5-min Rain = 0
KOD1 251710Z 17012G17KT 27/22 A30 RMK A01 T02680216  RH  073%=      5-min Rain = 0
KOD1 251711Z 18013KT 27/22 A30 RMK A01 T02700218  RH  073%=      5-min Rain = 0
KOD1 251712Z 18013KT 27/22 A30 RMK A01 T02710217  RH  072%=      5-min Rain = 0
KOD1 251713Z 17013KT 27/22 A30 RMK A01 T02710217  RH  072%=      5-min Rain = 0
KOD1 251714Z 18015KT 27/22 A30 RMK A01 T02720217  RH  072%=      5-min Rain = 0
KOD1 251715Z 18015KT 27/21 A30 RMK A01 T02710213  RH  071%=      5-min Rain = 0
KOD1 251716Z 16015KT 27/22 A30 RMK A01 T02710218  RH  073%=      5-min Rain = 0
KOD1 251717Z 16016KT 27/22 A30 RMK A01 T02720216  RH  072%=      5-min Rain = 0
KOD1 251718Z 17011KT 27/22 A30 RMK A01 T02710216  RH  072%=      5-min Rain = 0
KOD1 251719Z 17016KT 27/22 A30 RMK A01 T02710218  RH  073%=      5-min Rain = 0
KOD1 251720Z 17017KT 27/21 A30 RMK A01 T02700214  RH  071%=      5-min Rain = 0
KOD1 251721Z 18014KT 27/22 A30 RMK A01 T02700217  RH  073%=      5-min Rain = 0
KOD1 251722Z 17016KT 27/22 A30 RMK A01 T02700216  RH  072%=      5-min Rain = 0
KOD1 251723Z 16016KT 27/22 A30 RMK A01 T02720219  RH  073%=      5-min Rain = 0
KOD1 251724Z 16017KT 27/22 A30 RMK A01 T02720215  RH  071%=      5-min Rain = 0
KOD1 251725Z 16015KT 27/22 A30 RMK A01 T02730218  RH  072%=      5-min Rain = 0
KOD1 251726Z 17017KT 27/22 A30 RMK A01 T02730219  RH  072%=      5-min Rain = 0
KOD1 251727Z 17014G20KT 27/22 A30 RMK A01 T02720215  RH  071%=      5-min Rain = 0
KOD1 251728Z 18016KT 27/21 A30 RMK A01 T02720214  RH  071%=      5-min Rain = 0
KOD1 251729Z 17014KT 27/22 A2999 RMK A01 T02710216  RH  072%=      5-min Rain = 0
KOD1 251730Z 18016KT 27/22 A2999 RMK A01 T02720217  RH  072%=      5-min Rain = 0
KOD1 251731Z 18015KT 27/21 A2999 RMK A01 T02720213  RH  070%=      5-min Rain = 0
KOD1 251732Z 18016KT 27/22 A2999 RMK A01 T02720216  RH  071%=      5-min Rain = 0
KOD1 251733Z 17017KT 27/22 A2999 RMK A01 T02710215  RH  071%=      5-min Rain = 0
KOD1 251734Z 17015KT 27/22 A30 RMK A01 T02720220  RH  073%=      5-min Rain = 0
KOD1 251735Z 16013KT 27/22 A30 RMK A01 T02730220  RH  072%=      5-min Rain = 0
KOD1 251736Z 17012KT 27/22 A2999 RMK A01 T02730217  RH  072%=      5-min Rain = 0
KOD1 251737Z 16014KT 27/22 A2999 RMK A01 T02740221  RH  073%=      5-min Rain = 0
KOD1 251738Z 18018KT 27/22 A2999 RMK A01 T02730215  RH  071%=      5-min Rain = 0
KOD1 251739Z 17016KT 27/21 A2999 RMK A01 T02720213  RH  070%=      5-min Rain = 0
KOD1 251740Z 18018KT 27/21 A2999 RMK A01 T02710212  RH  070%=      5-min Rain = 0
KOD1 251741Z 18016KT 27/21 A2999 RMK A01 T02700214  RH  071%=      5-min Rain = 0
KOD1 251742Z 17013KT 27/22 A2999 RMK A01 T02700217  RH  073%=      5-min Rain = 0
KOD1 251743Z 16016G21KT 27/22 A2999 RMK A01 T02710218  RH  073%=      5-min Rain = 0
KOD1 251744Z 17016KT 27/22 A2999 RMK A01 T02700215  RH  072%=      5-min Rain = 0
KOD1 251745Z 16015KT 27/22 A30 RMK A01 T02690215  RH  072%=      5-min Rain = 0
KOD1 251746Z 17016KT 27/22 A30 RMK A01 T02690215  RH  072%=      5-min Rain = 0
KOD1 251747Z 17015KT 27/21 A2999 RMK A01 T02680214  RH  072%=      5-min Rain = 0
KOD1 251748Z 17014KT 27/22 A2999 RMK A01 T02690217  RH  073%=      5-min Rain = 0
KOD1 251749Z 17012KT 27/22 A2999 RMK A01 T02700219  RH  074%=      5-min Rain = 0
KOD1 251750Z 18014KT 27/22 A2999 RMK A01 T02720218  RH  073%=      5-min Rain = 0
KOD1 251751Z 17014KT 27/22 A2999 RMK A01 T02710216  RH  072%=      5-min Rain = 0
KOD1 251752Z 17015KT 27/22 A2999 RMK A01 T02710219  RH  073%=      5-min Rain = 0
KOD1 251753Z 18016KT 27/21 A2999 RMK A01 T02700212  RH  071%=      5-min Rain = 0
KOD1 251754Z 17014KT 27/21 A2999 RMK A01 T02690212  RH  071%=      5-min Rain = 0
KOD1 251755Z 16014KT 27/21 A2999 RMK A01 T02690213  RH  071%=      5-min Rain = 0
KOD1 251756Z 18014KT 27/22 A2999 RMK A01 T02700216  RH  073%=      5-min Rain = 0
KOD1 251757Z 17013KT 27/22 A2999 RMK A01 T02700215  RH  072%=      5-min Rain = 0
KOD1 251758Z 16012KT 27/22 A2999 RMK A01 T02700216  RH  072%=      5-min Rain = 0
KOD1 251759Z 16014KT 27/22 A2999 RMK A01 T02710217  RH  072%=      5-min Rain = 0
KOD1 251800Z 16014KT 27/22 A2999 RMK A01 T02710217  RH  072%=      5-min Rain = 0
KOD1 251801Z 16017KT 27/22 A2999 RMK A01 T02710215  RH  072%=      5-min Rain = 0
KOD1 251802Z 16013G18KT 27/22 A2999 RMK A01 T02710217  RH  072%=      5-min Rain = 0
KOD1 251803Z 17016KT 27/22 A2999 RMK A01 T02720217  RH  072%=      5-min Rain = 0
KOD1 251804Z 18013KT 27/22 A2999 RMK A01 T02710216  RH  072%=      5-min Rain = 0
KOD1 251805Z 17013KT 27/22 A2999 RMK A01 T02720220  RH  073%=      5-min Rain = 0
KOD1 251806Z 16014KT 27/22 A2999 RMK A01 T02720217  RH  072%=      5-min Rain = 0
KOD1 251807Z 16014KT 27/22 A2999 RMK A01 T02730217  RH  072%=      5-min Rain = 0
KOD1 251808Z 16014KT 27/22 A2999 RMK A01 T02730218  RH  072%=      5-min Rain = 0
KOD1 251809Z 16015KT 27/22 A2999 RMK A01 T02730216  RH  071%=      5-min Rain = 0
KOD1 251810Z 16012KT 27/22 A2999 RMK A01 T02720218  RH  072%=      5-min Rain = 0
KOD1 251811Z 16015KT 27/22 A2999 RMK A01 T02720218  RH  072%=      5-min Rain = 0
KOD1 251812Z 16014KT 27/22 A2999 RMK A01 T02720216  RH  072%=      5-min Rain = 0
KOD1 251813Z 16014KT 27/22 A2999 RMK A01 T02720219  RH  072%=      5-min Rain = 0
KOD1 251814Z 16015KT 27/22 A2999 RMK A01 T02720215  RH  071%=      5-min Rain = 0
KOD1 251815Z 17013KT 27/22 A2999 RMK A01 T02710215  RH  071%=      5-min Rain = 0
KOD1 251816Z 17013KT 27/22 A2998 RMK A01 T02710215  RH  072%=      5-min Rain = 0
KOD1 251817Z 17010KT 27/22 A2999 RMK A01 T02730221  RH  073%=      5-min Rain = 0
KOD1 251818Z 16014KT 28/22 A2998 RMK A01 T02750220  RH  072%=      5-min Rain = 0
KOD1 251819Z 16016KT 28/22 A2998 RMK A01 T02750217  RH  071%=      5-min Rain = 0
KOD1 251820Z 16015KT 28/22 A2998 RMK A01 T02750218  RH  071%=      5-min Rain = 0
KOD1 251821Z 16016KT 28/22 A2998 RMK A01 T02760220  RH  072%=      5-min Rain = 0
KOD1 251822Z 16015KT 28/22 A2998 RMK A01 T02760217  RH  070%=      5-min Rain = 0
KOD1 251823Z 15016KT 28/22 A2998 RMK A01 T02760219  RH  071%=      5-min Rain = 0
KOD1 251824Z 15014KT 28/22 A2998 RMK A01 T02750217  RH  071%=      5-min Rain = 0
KOD1 251825Z 15012KT 27/22 A2998 RMK A01 T02740220  RH  072%=      5-min Rain = 0
KOD1 251826Z 16014KT 27/22 A2998 RMK A01 T02740218  RH  072%=      5-min Rain = 0
KOD1 251827Z 17012KT 27/22 A2998 RMK A01 T02730219  RH  072%=      5-min Rain = 0
KOD1 251828Z 17014KT 27/22 A2998 RMK A01 T02720218  RH  072%=      5-min Rain = 0
KOD1 251829Z 16016KT 27/22 A2998 RMK A01 T02710216  RH  072%=      5-min Rain = 0
KOD1 251830Z 16015KT 27/21 A2998 RMK A01 T02710214  RH  071%=      5-min Rain = 0
KOD1 251831Z 16011KT 27/22 A2998 RMK A01 T02710218  RH  072%=      5-min Rain = 0
KOD1 251832Z 15014KT 27/22 A2998 RMK A01 T02720218  RH  072%=      5-min Rain = 0
KOD1 251833Z 16013KT 27/22 A2998 RMK A01 T02730218  RH  072%=      5-min Rain = 0
KOD1 251834Z 16013KT 27/22 A2998 RMK A01 T02730220  RH  073%=      5-min Rain = 0
KOD1 251835Z 16015KT 27/22 A2998 RMK A01 T02720216  RH  071%=      5-min Rain = 0
KOD1 251836Z 16014KT 27/22 A2998 RMK A01 T02710217  RH  072%=      5-min Rain = 0
KOD1 251837Z 16011KT 27/22 A2998 RMK A01 T02710218  RH  073%=      5-min Rain = 0
KOD1 251838Z 16012KT 27/22 A2998 RMK A01 T02710220  RH  073%=      5-min Rain = 0
KOD1 251839Z 15013KT 27/22 A2998 RMK A01 T02710217  RH  072%=      5-min Rain = 0
KOD1 251840Z 15013KT 27/22 A2998 RMK A01 T02710217  RH  072%=      5-min Rain = 0
KOD1 251841Z 15014KT 27/22 A2998 RMK A01 T02710216  RH  072%=      5-min Rain = 0
KOD1 251842Z 15016KT 27/22 A2997 RMK A01 T02710215  RH  071%=      5-min Rain = 0
KOD1 251843Z 16013KT 27/22 A2998 RMK A01 T02700215  RH  072%=      5-min Rain = 0
KOD1 251844Z 16014KT 27/22 A2997 RMK A01 T02700216  RH  072%=      5-min Rain = 0
KOD1 251845Z 17013KT 27/22 A2997 RMK A01 T02700216  RH  072%=      5-min Rain = 0
KOD1 251846Z 17012KT 27/22 A2997 RMK A01 T02700216  RH  072%=      5-min Rain = 0
KOD1 251847Z 16013KT 27/22 A2997 RMK A01 T02710218  RH  073%=      5-min Rain = 0
KOD1 251848Z 15015KT 27/22 A2997 RMK A01 T02710216  RH  072%=      5-min Rain = 0
KOD1 251849Z 15013KT 27/22 A2997 RMK A01 T02710215  RH  072%=      5-min Rain = 0
KOD1 251850Z 15013KT 27/22 A2997 RMK A01 T02710217  RH  072%=      5-min Rain = 0
KOD1 251851Z 16014KT 27/22 A2997 RMK A01 T02720217  RH  072%=      5-min Rain = 0
KOD1 251852Z 15015KT 27/22 A2997 RMK A01 T02720217  RH  072%=      5-min Rain = 0
KOD1 251853Z 15015KT 27/22 A2997 RMK A01 T02720217  RH  072%=      5-min Rain = 0
KOD1 251854Z 15016KT 27/22 A2997 RMK A01 T02720216  RH  072%=      5-min Rain = 0
KOD1 251855Z 16015KT 27/22 A2997 RMK A01 T02720215  RH  071%=      5-min Rain = 0
KOD1 251856Z 16016KT 27/22 A2997 RMK A01 T02720215  RH  071%=      5-min Rain = 0
KOD1 251857Z 16014KT 27/22 A2997 RMK A01 T02720216  RH  072%=      5-min Rain = 0
KOD1 251858Z 16015KT 27/22 A2997 RMK A01 T02720217  RH  072%=      5-min Rain = 0
KOD1 251859Z 16016KT 27/21 A2997 RMK A01 T02720214  RH  071%=      5-min Rain = 0
KOD1 251900Z 16016KT 27/22 A2997 RMK A01 T02710215  RH  071%=      5-min Rain = 0
KOD1 251901Z 16017KT 27/21 A2997 RMK A01 T02720214  RH  071%=      5-min Rain = 0
KOD1 251902Z 16014KT 27/22 A2997 RMK A01 T02730216  RH  071%=      5-min Rain = 0
KOD1 251903Z 15011KT 28/22 A2997 RMK A01 T02760221  RH  072%=      5-min Rain = 0
KOD1 251904Z 16013KT 28/22 A2997 RMK A01 T02770221  RH  071%=      5-min Rain = 0
KOD1 251905Z 15013KT 28/22 A2997 RMK A01 T02790222  RH  071%=      5-min Rain = 0
KOD1 251906Z 15014KT 28/22 A2997 RMK A01 T02800220  RH  070%=      5-min Rain = 0
KOD1 251907Z 16015KT 28/22 A2997 RMK A01 T02800219  RH  070%=      5-min Rain = 0
KOD1 251908Z 15013KT 28/22 A2997 RMK A01 T02810223  RH  071%=      5-min Rain = 0
KOD1 251909Z 16014KT 28/22 A2997 RMK A01 T02820220  RH  069%=      5-min Rain = 0
KOD1 251910Z 15013KT 28/22 A2997 RMK A01 T02820221  RH  070%=      5-min Rain = 0
KOD1 251911Z 15013KT 28/22 A2997 RMK A01 T02820221  RH  069%=      5-min Rain = 0
KOD1 251912Z 16013KT 28/22 A2997 RMK A01 T02820224  RH  071%=      5-min Rain = 0
KOD1 251913Z 15015KT 28/22 A2996 RMK A01 T02830221  RH  069%=      5-min Rain = 0
KOD1 251914Z 16013KT 28/22 A2996 RMK A01 T02820221  RH  069%=      5-min Rain = 0
KOD1 251915Z 16018KT 28/22 A2996 RMK A01 T02810217  RH  068%=      5-min Rain = 0
KOD1 251916Z 16015G20KT 28/22 A2996 RMK A01 T02790217  RH  069%=      5-min Rain = 0
KOD1 251917Z 15017KT 28/22 A2996 RMK A01 T02780217  RH  069%=      5-min Rain = 0
KOD1 251918Z 15016KT 28/22 A2996 RMK A01 T02780218  RH  070%=      5-min Rain = 0
KOD1 251919Z 15016KT 28/22 A2996 RMK A01 T02790217  RH  069%=      5-min Rain = 0
KOD1 251920Z 16017KT 28/22 A2996 RMK A01 T02790217  RH  069%=      5-min Rain = 0
KOD1 251921Z 16016KT 28/22 A2996 RMK A01 T02780217  RH  069%=      5-min Rain = 0
KOD1 251922Z 17017KT 28/22 A2996 RMK A01 T02790218  RH  070%=      5-min Rain = 0
KOD1 251923Z 17016KT 28/22 A2996 RMK A01 T02790216  RH  069%=      5-min Rain = 0
KOD1 251924Z 17014KT 28/22 A2996 RMK A01 T02800217  RH  069%=      5-min Rain = 0
KOD1 251925Z 17015KT 28/22 A2996 RMK A01 T02810219  RH  069%=      5-min Rain = 0
KOD1 251926Z 16015KT 28/22 A2996 RMK A01 T02820218  RH  069%=      5-min Rain = 0
KOD1 251927Z 17014KT 28/22 A2996 RMK A01 T02810219  RH  069%=      5-min Rain = 0
KOD1 251928Z 16014KT 28/22 A2996 RMK A01 T02810218  RH  069%=      5-min Rain = 0
KOD1 251929Z 16013KT 28/22 A2996 RMK A01 T02800221  RH  070%=      5-min Rain = 0
KOD1 251930Z 15014KT 28/22 A2996 RMK A01 T02790218  RH  070%=      5-min Rain = 0
KOD1 251931Z 15015KT 28/22 A2996 RMK A01 T02770216  RH  069%=      5-min Rain = 0
KOD1 251932Z 16015KT 28/22 A2996 RMK A01 T02770216  RH  070%=      5-min Rain = 0
KOD1 251933Z 16014KT 28/22 A2996 RMK A01 T02760216  RH  070%=      5-min Rain = 0
KOD1 251934Z 17014KT 28/22 A2996 RMK A01 T02760218  RH  070%=      5-min Rain = 0
KOD1 251935Z 16016KT 28/22 A2996 RMK A01 T02760218  RH  071%=      5-min Rain = 0
KOD1 251936Z 15015KT 28/22 A2996 RMK A01 T02770218  RH  070%=      5-min Rain = 0
KOD1 251937Z 16014KT 28/22 A2996 RMK A01 T02780217  RH  069%=      5-min Rain = 0
KOD1 251938Z 15012KT 28/22 A2996 RMK A01 T02790220  RH  070%=      5-min Rain = 0
KOD1 251939Z 15014KT 28/22 A2995 RMK A01 T02810221  RH  070%=      5-min Rain = 0
KOD1 251940Z 15013KT 28/22 A2995 RMK A01 T02820221  RH  069%=      5-min Rain = 0
KOD1 251941Z 15014KT 28/22 A2995 RMK A01 T02830220  RH  069%=      5-min Rain = 0
KOD1 251942Z 16014KT 29/22 A2995 RMK A01 T02850220  RH  068%=      5-min Rain = 0
KOD1 251943Z 16014KT 29/22 A2995 RMK A01 T02850222  RH  069%=      5-min Rain = 0
KOD1 251944Z 16013KT 29/22 A2995 RMK A01 T02850221  RH  068%=      5-min Rain = 0
KOD1 251945Z 16012KT 29/22 A2995 RMK A01 T02850222  RH  069%=      5-min Rain = 0
KOD1 251946Z 16013KT 29/22 A2995 RMK A01 T02850223  RH  069%=      5-min Rain = 0
KOD1 251947Z 16013KT 29/22 A2995 RMK A01 T02850221  RH  068%=      5-min Rain = 0
KOD1 251948Z 17013KT 29/22 A2995 RMK A01 T02850222  RH  068%=      5-min Rain = 0
KOD1 251949Z 16014KT 29/22 A2995 RMK A01 T02850221  RH  068%=      5-min Rain = 0
KOD1 251950Z 16012KT 28/22 A2995 RMK A01 T02840221  RH  069%=      5-min Rain = 0
KOD1 251951Z 15013KT 28/22 A2995 RMK A01 T02830220  RH  069%=      5-min Rain = 0
KOD1 251952Z 14015KT 28/22 A2995 RMK A01 T02840221  RH  069%=      5-min Rain = 0
KOD1 251953Z 15015KT 28/22 A2995 RMK A01 T02830218  RH  068%=      5-min Rain = 0
KOD1 251954Z 15015KT 28/22 A2995 RMK A01 T02820219  RH  068%=      5-min Rain = 0
KOD1 251955Z 15016KT 28/22 A2995 RMK A01 T02820220  RH  069%=      5-min Rain = 0
KOD1 251956Z 15016KT 28/22 A2995 RMK A01 T02810217  RH  068%=      5-min Rain = 0
KOD1 251957Z 15013KT 28/22 A2995 RMK A01 T02820218  RH  068%=      5-min Rain = 0
KOD1 251958Z 15016KT 28/22 A2995 RMK A01 T02830218  RH  068%=      5-min Rain = 0
KOD1 251959Z 15015KT 28/22 A2995 RMK A01 T02840218  RH  068%=      5-min Rain = 0
KOD1 252000Z 15014KT 28/22 A2995 RMK A01 T02840218  RH  067%=      5-min Rain = 0
KOD1 252001Z 15015KT 28/22 A2995 RMK A01 T02840217  RH  067%=      5-min Rain = 0
KOD1 252002Z 15013KT 28/22 A2995 RMK A01 T02840220  RH  068%=      5-min Rain = 0
KOD1 252003Z 15015KT 29/22 A2994 RMK A01 T02850220  RH  068%=      5-min Rain = 0
KOD1 252004Z 15013KT 29/23 A2995 RMK A01 T02880225  RH  069%=      5-min Rain = 0
KOD1 252005Z 15012KT 29/22 A2994 RMK A01 T02890222  RH  067%=      5-min Rain = 0
KOD1 252006Z 15014KT 29/22 A2994 RMK A01 T02900224  RH  067%=      5-min Rain = 0
KOD1 252007Z 15016KT 29/22 A2994 RMK A01 T02900222  RH  066%=      5-min Rain = 0
KOD1 252008Z 17015KT 29/22 A2994 RMK A01 T02880220  RH  067%=      5-min Rain = 0
KOD1 252009Z 17017KT 29/22 A2994 RMK A01 T02860216  RH  066%=      5-min Rain = 0
KOD1 252010Z 17014KT 28/22 A2994 RMK A01 T02840217  RH  067%=      5-min Rain = 0
KOD1 252011Z 16015KT 28/22 A2994 RMK A01 T02830217  RH  068%=      5-min Rain = 0
KOD1 252012Z 17013KT 28/22 A2994 RMK A01 T02820218  RH  068%=      5-min Rain = 0
KOD1 252013Z 17015KT 28/22 A2994 RMK A01 T02810217  RH  068%=      5-min Rain = 0
KOD1 252014Z 15015KT 28/22 A2994 RMK A01 T02800218  RH  069%=      5-min Rain = 0
KOD1 252015Z 15014KT 28/22 A2994 RMK A01 T02800217  RH  069%=      5-min Rain = 0
KOD1 252016Z 15015KT 28/22 A2994 RMK A01 T02810219  RH  069%=      5-min Rain = 0
KOD1 252017Z 16013KT 28/22 A2994 RMK A01 T02810218  RH  069%=      5-min Rain = 0
KOD1 252018Z 15014KT 28/22 A2994 RMK A01 T02810220  RH  069%=      5-min Rain = 0
KOD1 252019Z 16014KT 28/22 A2994 RMK A01 T02820219  RH  069%=      5-min Rain = 0
KOD1 252020Z 16014KT 29/22 A2994 RMK A01 T02850224  RH  069%=      5-min Rain = 0
KOD1 252021Z 16013KT 29/22 A2994 RMK A01 T02890223  RH  068%=      5-min Rain = 0
KOD1 252022Z 15015KT 29/22 A2994 RMK A01 T02910222  RH  066%=      5-min Rain = 0
KOD1 252023Z 15012G18KT 29/22 A2994 RMK A01 T02910224  RH  067%=      5-min Rain = 0
KOD1 252024Z 16014KT 29/22 A2994 RMK A01 T02910222  RH  066%=      5-min Rain = 0
KOD1 252025Z 16013G18KT 29/22 A2994 RMK A01 T02890224  RH  068%=      5-min Rain = 0
KOD1 252026Z 15012KT 29/23 A2994 RMK A01 T02870225  RH  069%=      5-min Rain = 0
KOD1 252027Z 16012KT 29/22 A2994 RMK A01 T02870224  RH  069%=      5-min Rain = 0
KOD1 252028Z 16015KT 29/22 A2994 RMK A01 T02860222  RH  068%=      5-min Rain = 0
KOD1 252029Z 15016KT 28/22 A2994 RMK A01 T02840218  RH  067%=      5-min Rain = 0
KOD1 252030Z 14016KT 28/22 A2994 RMK A01 T02830216  RH  067%=      5-min Rain = 0
KOD1 252031Z 14015KT 28/21 A2994 RMK A01 T02830214  RH  066%=      5-min Rain = 0
KOD1 252032Z 15012G17KT 28/22 A2994 RMK A01 T02830219  RH  068%=      5-min Rain = 0
KOD1 252033Z 14014KT 28/22 A2994 RMK A01 T02830218  RH  068%=      5-min Rain = 0
KOD1 252034Z 14013KT 28/22 A2994 RMK A01 T02830217  RH  068%=      5-min Rain = 0
KOD1 252035Z 15012KT 28/22 A2994 RMK A01 T02830217  RH  067%=      5-min Rain = 0
KOD1 252036Z 14012KT 28/22 A2993 RMK A01 T02830218  RH  068%=      5-min Rain = 0
KOD1 252037Z 14012KT 28/22 A2993 RMK A01 T02830217  RH  067%=      5-min Rain = 0
KOD1 252038Z 15014KT 28/22 A2993 RMK A01 T02840218  RH  068%=      5-min Rain = 0
KOD1 252039Z 15012KT 28/22 A2993 RMK A01 T02840220  RH  068%=      5-min Rain = 0
KOD1 252040Z 15014KT 28/22 A2994 RMK A01 T02840218  RH  068%=      5-min Rain = 0
KOD1 252041Z 15016G23KT 28/22 A2993 RMK A01 T02830217  RH  067%=      5-min Rain = 0
KOD1 252042Z 15016KT 28/22 A2993 RMK A01 T02830215  RH  067%=      5-min Rain = 0
KOD1 252043Z 16017KT 28/22 A2993 RMK A01 T02820216  RH  067%=      5-min Rain = 0
KOD1 252044Z 16017KT 28/22 A2993 RMK A01 T02820215  RH  067%=      5-min Rain = 0
KOD1 252045Z 16015KT 28/22 A2993 RMK A01 T02820217  RH  068%=      5-min Rain = 0
KOD1 252046Z 16014KT 28/22 A2993 RMK A01 T02830218  RH  068%=      5-min Rain = 0
KOD1 252047Z 15014KT 29/22 A2993 RMK A01 T02850220  RH  068%=      5-min Rain = 0
KOD1 252048Z 14016KT 29/22 A2993 RMK A01 T02870217  RH  066%=      5-min Rain = 0
KOD1 252049Z 15014KT 29/22 A2993 RMK A01 T02890220  RH  066%=      5-min Rain = 0
KOD1 252050Z 15014KT 29/22 A2993 RMK A01 T02910220  RH  066%=      5-min Rain = 0
KOD1 252051Z 15012KT 29/22 A2992 RMK A01 T02900221  RH  066%=      5-min Rain = 0
KOD1 252052Z 15012G17KT 29/22 A2992 RMK A01 T02900223  RH  067%=      5-min Rain = 0
KOD1 252053Z 14016KT 29/22 A2992 RMK A01 T02900219  RH  065%=      5-min Rain = 0
KOD1 252054Z 14015G20KT 29/22 A2992 RMK A01 T02890218  RH  065%=      5-min Rain = 0
KOD1 252055Z 14017KT 29/22 A2992 RMK A01 T02890218  RH  065%=      5-min Rain = 0
KOD1 252056Z 15015KT 29/22 A2992 RMK A01 T02890217  RH  065%=      5-min Rain = 0
KOD1 252057Z 14015KT 29/22 A2992 RMK A01 T02890218  RH  066%=      5-min Rain = 0
KOD1 252058Z 15016KT 29/22 A2992 RMK A01 T02890217  RH  065%=      5-min Rain = 0
KOD1 252059Z 15013KT 29/22 A2992 RMK A01 T02890219  RH  066%=      5-min Rain = 0
KOD1 252100Z 16014KT 29/22 A2992 RMK A01 T02880222  RH  068%=      5-min Rain = 0
KOD1 252101Z 16016KT 29/22 A2992 RMK A01 T02860222  RH  068%=      5-min Rain = 0
KOD1 252102Z 16018KT 28/22 A2991 RMK A01 T02840222  RH  069%=      5-min Rain = 0
KOD1 252103Z 15015KT 28/23 A2991 RMK A01 T02830225  RH  071%=      5-min Rain = 0
KOD1 252104Z 15014KT 28/23 A2991 RMK A01 T02830227  RH  072%=      5-min Rain = 0
KOD1 252105Z 15015KT 28/22 A2992 RMK A01 T02830222  RH  070%=      5-min Rain = 0
KOD1 252106Z 14014KT 28/22 A2992 RMK A01 T02830222  RH  069%=      5-min Rain = 0
KOD1 252107Z 15010G15KT 28/22 A2992 RMK A01 T02840224  RH  070%=      5-min Rain = 0
KOD1 252108Z 15015KT 29/22 A2992 RMK A01 T02850222  RH  069%=      5-min Rain = 0
KOD1 252109Z 16015KT 29/22 A2992 RMK A01 T02850219  RH  067%=      5-min Rain = 0
KOD1 252110Z 15017KT 29/22 A2991 RMK A01 T02850219  RH  067%=      5-min Rain = 0
KOD1 252111Z 16016KT 29/22 A2992 RMK A01 T02850220  RH  068%=      5-min Rain = 0
KOD1 252112Z 15016KT 28/22 A2991 RMK A01 T02840218  RH  067%=      5-min Rain = 0
KOD1 252113Z 15012KT 28/22 A2992 RMK A01 T02840221  RH  068%=      5-min Rain = 0
KOD1 252114Z 15015G20KT 28/22 A2992 RMK A01 T02840218  RH  067%=      5-min Rain = 0
KOD1 252115Z 15014KT 29/22 A2992 RMK A01 T02850215  RH  066%=      5-min Rain = 0
KOD1 252116Z 15015KT 29/22 A2992 RMK A01 T02850217  RH  066%=      5-min Rain = 0
KOD1 252117Z 15014KT 29/22 A2992 RMK A01 T02860216  RH  066%=      5-min Rain = 0
KOD1 252118Z 15015KT 29/22 A2992 RMK A01 T02860218  RH  067%=      5-min Rain = 0
KOD1 252119Z 15014KT 29/22 A2992 RMK A01 T02850218  RH  067%=      5-min Rain = 0
KOD1 252120Z 15015KT 29/22 A2991 RMK A01 T02850217  RH  067%=      5-min Rain = 0
KOD1 252121Z 15014KT 29/22 A2991 RMK A01 T02850219  RH  068%=      5-min Rain = 0
KOD1 252122Z 15014KT 29/22 A2991 RMK A01 T02850220  RH  068%=      5-min Rain = 0
KOD1 252123Z 16016KT 29/22 A2991 RMK A01 T02850219  RH  067%=      5-min Rain = 0
KOD1 252124Z 16016KT 29/22 A2991 RMK A01 T02860217  RH  066%=      5-min Rain = 0
KOD1 252125Z 17015KT 29/22 A2991 RMK A01 T02880219  RH  066%=      5-min Rain = 0
KOD1 252126Z 17017KT 29/22 A2991 RMK A01 T02880218  RH  066%=      5-min Rain = 0
KOD1 252127Z 17016KT 29/22 A2991 RMK A01 T02880216  RH  065%=      5-min Rain = 0
KOD1 252128Z 16018KT 29/22 A2991 RMK A01 T02880217  RH  065%=      5-min Rain = 0
KOD1 252129Z 16018KT 29/22 A2991 RMK A01 T02880218  RH  066%=      5-min Rain = 0
KOD1 252130Z 16017KT 29/22 A2991 RMK A01 T02880217  RH  066%=      5-min Rain = 0
KOD1 252131Z 16015KT 29/22 A2991 RMK A01 T02870218  RH  066%=      5-min Rain = 0
KOD1 252132Z 16014KT 29/22 A2991 RMK A01 T02860218  RH  066%=      5-min Rain = 0
KOD1 252133Z 15013KT 29/22 A2991 RMK A01 T02860221  RH  068%=      5-min Rain = 0
KOD1 252134Z 15013KT 29/22 A2991 RMK A01 T02870222  RH  068%=      5-min Rain = 0
KOD1 252135Z 15013KT 29/22 A2991 RMK A01 T02880222  RH  067%=      5-min Rain = 0
KOD1 252136Z 15014KT 29/22 A2991 RMK A01 T02890222  RH  067%=      5-min Rain = 0
KOD1 252137Z 15017G22KT 29/22 A2991 RMK A01 T02900217  RH  065%=      5-min Rain = 0
KOD1 252138Z 15016KT 29/22 A2991 RMK A01 T02910216  RH  064%=      5-min Rain = 0
KOD1 252139Z 14016KT 29/22 A2991 RMK A01 T02920219  RH  065%=      5-min Rain = 0
KOD1 252140Z 15018KT 29/22 A2991 RMK A01 T02920218  RH  064%=      5-min Rain = 0
KOD1 252141Z 15019KT 29/22 A2991 RMK A01 T02920215  RH  063%=      5-min Rain = 0
KOD1 252142Z 15016KT 29/22 A2991 RMK A01 T02910217  RH  064%=      5-min Rain = 0
KOD1 252143Z 15016KT 29/22 A2991 RMK A01 T02900217  RH  065%=      5-min Rain = 0
KOD1 252144Z 15019KT 29/21 A299 RMK A01 T02890214  RH  064%=      5-min Rain = 0
KOD1 252145Z 15018KT 29/22 A299 RMK A01 T02880215  RH  064%=      5-min Rain = 0
KOD1 252146Z 16018KT 29/22 A299 RMK A01 T02880215  RH  065%=      5-min Rain = 0
KOD1 252147Z 16019KT 29/22 A299 RMK A01 T02870215  RH  065%=      5-min Rain = 0
KOD1 252148Z 15018KT 29/21 A299 RMK A01 T02870214  RH  065%=      5-min Rain = 0
KOD1 252149Z 16019KT 29/21 A299 RMK A01 T02860214  RH  065%=      5-min Rain = 0
KOD1 252150Z 15018KT 29/21 A299 RMK A01 T02860214  RH  065%=      5-min Rain = 0
KOD1 252151Z 15021KT 29/22 A299 RMK A01 T02870215  RH  065%=      5-min Rain = 0
KOD1 252152Z 15019KT 29/22 A299 RMK A01 T02870215  RH  065%=      5-min Rain = 0
KOD1 252153Z 15021KT 29/22 A299 RMK A01 T02880215  RH  065%=      5-min Rain = 0
KOD1 252154Z 15019KT 29/22 A299 RMK A01 T02890216  RH  065%=      5-min Rain = 0
KOD1 252155Z 15018KT 29/22 A299 RMK A01 T02900215  RH  064%=      5-min Rain = 0
KOD1 252156Z 15015KT 29/22 A299 RMK A01 T02910217  RH  065%=      5-min Rain = 0
KOD1 252157Z 15014KT 29/22 A299 RMK A01 T02920219  RH  065%=      5-min Rain = 0
KOD1 252158Z 14014G21KT 29/22 A299 RMK A01 T02920220  RH  065%=      5-min Rain = 0
KOD1 252159Z 15020KT 29/21 A299 RMK A01 T02920214  RH  063%=      5-min Rain = 0
KOD1 252200Z 15021KT 29/21 A299 RMK A01 T02920214  RH  063%=      5-min Rain = 0
KOD1 252201Z 15019KT 29/21 A299 RMK A01 T02920213  RH  063%=      5-min Rain = 0
KOD1 252202Z 15017KT 29/22 A299 RMK A01 T02910216  RH  064%=      5-min Rain = 0
KOD1 252203Z 15016KT 29/22 A2989 RMK A01 T02900216  RH  064%=      5-min Rain = 0
KOD1 252204Z 15019KT 29/21 A2989 RMK A01 T02900214  RH  064%=      5-min Rain = 0
KOD1 252205Z 15020KT 29/21 A2989 RMK A01 T02890212  RH  063%=      5-min Rain = 0
KOD1 252206Z 15020KT 29/21 A2989 RMK A01 T02890214  RH  064%=      5-min Rain = 0
KOD1 252207Z 15018KT 29/21 A2989 RMK A01 T02890214  RH  064%=      5-min Rain = 0
KOD1 252208Z 15019KT 29/21 A2989 RMK A01 T02880214  RH  064%=      5-min Rain = 0
KOD1 252209Z 15016KT 29/22 A2989 RMK A01 T02880217  RH  066%=      5-min Rain = 0
KOD1 252210Z 15018KT 29/22 A2989 RMK A01 T02880216  RH  065%=      5-min Rain = 0
KOD1 252211Z 15018KT 29/21 A2989 RMK A01 T02890214  RH  064%=      5-min Rain = 0
KOD1 252212Z 15018KT 29/22 A2988 RMK A01 T02890215  RH  064%=      5-min Rain = 0
KOD1 252213Z 16018KT 29/21 A2988 RMK A01 T02890213  RH  063%=      5-min Rain = 0
KOD1 252214Z 15016KT 29/21 A2988 RMK A01 T02890214  RH  064%=      5-min Rain = 0
KOD1 252215Z 15019KT 29/21 A2988 RMK A01 T02890213  RH  064%=      5-min Rain = 0
KOD1 252216Z 15017KT 29/21 A2988 RMK A01 T02890213  RH  064%=      5-min Rain = 0
KOD1 252217Z 15017KT 29/22 A2988 RMK A01 T02890217  RH  065%=      5-min Rain = 0
KOD1 252218Z 15019KT 29/22 A2988 RMK A01 T02890215  RH  064%=      5-min Rain = 0
KOD1 252219Z 15016KT 29/22 A2988 RMK A01 T02890217  RH  065%=      5-min Rain = 0
KOD1 252220Z 14016G23KT 29/22 A2988 RMK A01 T02890219  RH  066%=      5-min Rain = 0
KOD1 252221Z 15021G27KT 29/22 A2987 RMK A01 T02890217  RH  065%=      5-min Rain = 0
KOD1 252222Z 15018G23KT 29/22 A2987 RMK A01 T02890218  RH  065%=      5-min Rain = 0
KOD1 252223Z 15017G22KT 29/22 A2987 RMK A01 T02890215  RH  064%=      5-min Rain = 0
KOD1 252224Z 15019G24KT 29/21 A2987 RMK A01 T02890214  RH  064%=      5-min Rain = 0
KOD1 252225Z 16021KT 29/21 A2987 RMK A01 T02890214  RH  064%=      5-min Rain = 0
KOD1 252226Z 16020KT 29/21 A2987 RMK A01 T02880213  RH  064%=      5-min Rain = 0
KOD1 252227Z 15017G22KT 29/22 A2987 RMK A01 T02870215  RH  065%=      5-min Rain = 0
KOD1 252228Z 15020KT 29/21 A2987 RMK A01 T02870214  RH  065%=      5-min Rain = 0
KOD1 252229Z 15018KT 29/22 A2987 RMK A01 T02870215  RH  065%=      5-min Rain = 0
KOD1 252230Z 16018KT 29/22 A2987 RMK A01 T02870216  RH  066%=      5-min Rain = 0
KOD1 252231Z 15019G24KT 29/22 A2987 RMK A01 T02870215  RH  065%=      5-min Rain = 0
KOD1 252232Z 16019KT 29/22 A2987 RMK A01 T02870215  RH  065%=      5-min Rain = 0
KOD1 252233Z 15017KT 29/22 A2987 RMK A01 T02860217  RH  066%=      5-min Rain = 0
KOD1 252234Z 16020KT 29/22 A2986 RMK A01 T02860217  RH  066%=      5-min Rain = 0
KOD1 252235Z 16019KT 29/22 A2986 RMK A01 T02860216  RH  066%=      5-min Rain = 0
KOD1 252236Z 15018KT 29/22 A2986 RMK A01 T02860216  RH  066%=      5-min Rain = 0
KOD1 252237Z 15018KT 29/22 A2986 RMK A01 T02850217  RH  066%=      5-min Rain = 0
KOD1 252238Z 15020KT 29/22 A2986 RMK A01 T02850215  RH  066%=      5-min Rain = 0
KOD1 252239Z 15020KT 29/22 A2986 RMK A01 T02860215  RH  065%=      5-min Rain = 0
KOD1 252240Z 15019KT 29/21 A2986 RMK A01 T02860214  RH  065%=      5-min Rain = 0
KOD1 252241Z 15016KT 29/22 A2986 RMK A01 T02860217  RH  066%=      5-min Rain = 0
KOD1 252242Z 15015KT 29/22 A2986 RMK A01 T02850218  RH  067%=      5-min Rain = 0
KOD1 252243Z 15017KT 29/22 A2986 RMK A01 T02850217  RH  067%=      5-min Rain = 0
KOD1 252244Z 15017KT 29/22 A2986 RMK A01 T02850218  RH  067%=      5-min Rain = 0
KOD1 252245Z 16017KT 29/22 A2986 RMK A01 T02850217  RH  066%=      5-min Rain = 0
KOD1 252246Z 15019G25KT 29/22 A2986 RMK A01 T02850218  RH  067%=      5-min Rain = 0
KOD1 252247Z 15021G26KT 29/22 A2986 RMK A01 T02850215  RH  066%=      5-min Rain = 0
KOD1 252248Z 15022KT 29/21 A2986 RMK A01 T02850214  RH  065%=      5-min Rain = 0
KOD1 252249Z 15021KT 29/21 A2986 RMK A01 T02850214  RH  065%=      5-min Rain = 0
KOD1 252250Z 15020KT 29/22 A2986 RMK A01 T02850215  RH  066%=      5-min Rain = 0
KOD1 252251Z 15018KT 29/22 A2986 RMK A01 T02850217  RH  067%=      5-min Rain = 0
KOD1 252252Z 15017KT 28/22 A2986 RMK A01 T02840219  RH  068%=      5-min Rain = 0
KOD1 252253Z 16019KT 28/22 A2986 RMK A01 T02840217  RH  067%=      5-min Rain = 0
KOD1 252254Z 16019KT 28/22 A2986 RMK A01 T02840216  RH  066%=      5-min Rain = 0
KOD1 252255Z 16019KT 29/22 A2986 RMK A01 T02850215  RH  066%=      5-min Rain = 0
KOD1 252256Z 16020KT 29/21 A2986 RMK A01 T02850214  RH  065%=      5-min Rain = 0
KOD1 252257Z 16018KT 29/22 A2986 RMK A01 T02850216  RH  066%=      5-min Rain = 0
KOD1 252258Z 16019KT 28/22 A2986 RMK A01 T02840216  RH  066%=      5-min Rain = 0
KOD1 252259Z 16019KT 28/22 A2986 RMK A01 T02840215  RH  066%=      5-min Rain = 0
KOD1 252300Z 16019KT 28/22 A2986 RMK A01 T02840217  RH  067%=      5-min Rain = 0
KOD1 252301Z 16020KT 28/22 A2986 RMK A01 T02840217  RH  067%=      5-min Rain = 0
KOD1 252302Z 16020G26KT 28/22 A2986 RMK A01 T02840217  RH  067%=      5-min Rain = 0
KOD1 252303Z 16024KT 28/22 A2986 RMK A01 T02840215  RH  066%=      5-min Rain = 0
KOD1 252304Z 16022KT 28/22 A2986 RMK A01 T02830216  RH  067%=      5-min Rain = 0
KOD1 252305Z 16022KT 28/22 A2986 RMK A01 T02830216  RH  067%=      5-min Rain = 0
KOD1 252306Z 16018KT 28/22 A2987 RMK A01 T02830217  RH  068%=      5-min Rain = 0
KOD1 252307Z 16021KT 28/22 A2986 RMK A01 T02820216  RH  067%=      5-min Rain = 0
KOD1 252308Z 16020KT 28/21 A2986 RMK A01 T02820214  RH  067%=      5-min Rain = 0
KOD1 252309Z 16019KT 28/22 A2986 RMK A01 T02820215  RH  067%=      5-min Rain = 0
KOD1 252310Z 16020KT 28/22 A2986 RMK A01 T02820215  RH  067%=      5-min Rain = 0
KOD1 252311Z 16019KT 28/21 A2986 RMK A01 T02820214  RH  066%=      5-min Rain = 0
KOD1 252312Z 16018KT 28/21 A2987 RMK A01 T02820214  RH  067%=      5-min Rain = 0
KOD1 252313Z 16017G22KT 28/22 A2987 RMK A01 T02820216  RH  067%=      5-min Rain = 0
KOD1 252314Z 16018KT 28/22 A2987 RMK A01 T02820215  RH  067%=      5-min Rain = 0
KOD1 252315Z 15018KT 28/21 A2987 RMK A01 T02820214  RH  067%=      5-min Rain = 0
KOD1 252316Z 16017G22KT 28/22 A2987 RMK A01 T02820216  RH  067%=      5-min Rain = 0
KOD1 252317Z 16018KT 28/21 A2986 RMK A01 T02820214  RH  067%=      5-min Rain = 0
KOD1 252318Z 16018KT 28/22 A2986 RMK A01 T02820215  RH  067%=      5-min Rain = 0
KOD1 252319Z 16016G21KT 28/21 A2986 RMK A01 T02810214  RH  067%=      5-min Rain = 0
KOD1 252320Z 16016KT 28/22 A2986 RMK A01 T02810215  RH  067%=      5-min Rain = 0
KOD1 252321Z 16014KT 28/22 A2986 RMK A01 T02810215  RH  067%=      5-min Rain = 0
KOD1 252322Z 16018KT 28/22 A2986 RMK A01 T02800215  RH  068%=      5-min Rain = 0
KOD1 252323Z 16019KT 28/21 A2986 RMK A01 T02810213  RH  067%=      5-min Rain = 0
KOD1 252324Z 16017KT 28/21 A2985 RMK A01 T02810214  RH  067%=      5-min Rain = 0
KOD1 252325Z 16021KT 28/21 A2985 RMK A01 T02810212  RH  066%=      5-min Rain = 0
KOD1 252326Z 16020G25KT 28/21 A2985 RMK A01 T02820213  RH  066%=      5-min Rain = 0
KOD1 252327Z 15019KT 28/21 A2985 RMK A01 T02810213  RH  067%=      5-min Rain = 0
KOD1 252328Z 15017KT 28/22 A2985 RMK A01 T02800215  RH  067%=      5-min Rain = 0
KOD1 252329Z 15018KT 28/21 A2985 RMK A01 T02800214  RH  067%=      5-min Rain = 0
KOD1 252330Z 15016KT 28/22 A2985 RMK A01 T02790215  RH  068%=      5-min Rain = 0
KOD1 252331Z 15015KT 28/22 A2985 RMK A01 T02790215  RH  068%=      5-min Rain = 0
KOD1 252332Z 15013KT 28/22 A2985 RMK A01 T02780216  RH  069%=      5-min Rain = 0
KOD1 252333Z 15017KT 28/22 A2985 RMK A01 T02770215  RH  069%=      5-min Rain = 0
KOD1 252334Z 15018G23KT 28/21 A2985 RMK A01 T02770213  RH  068%=      5-min Rain = 0
KOD1 252335Z 15017KT 28/21 A2985 RMK A01 T02780214  RH  068%=      5-min Rain = 0
KOD1 252336Z 15017KT 28/21 A2986 RMK A01 T02770214  RH  068%=      5-min Rain = 0
KOD1 252337Z 15015G20KT 28/21 A2986 RMK A01 T02770214  RH  069%=      5-min Rain = 0
KOD1 252338Z 15015KT 28/22 A2986 RMK A01 T02760215  RH  069%=      5-min Rain = 0
KOD1 252339Z 15017KT 28/21 A2986 RMK A01 T02760214  RH  069%=      5-min Rain = 0
KOD1 252340Z 15017KT 28/21 A2986 RMK A01 T02760214  RH  069%=      5-min Rain = 0
KOD1 252341Z 15014KT 28/21 A2986 RMK A01 T02760214  RH  069%=      5-min Rain = 0
KOD1 252342Z 15012KT 28/22 A2986 RMK A01 T02750215  RH  070%=      5-min Rain = 0
KOD1 252343Z 15014KT 28/22 A2986 RMK A01 T02750215  RH  070%=      5-min Rain = 0
KOD1 252344Z 15016KT 28/22 A2986 RMK A01 T02750215  RH  070%=      5-min Rain = 0
KOD1 252345Z 15016KT 28/21 A2987 RMK A01 T02750214  RH  069%=      5-min Rain = 0
KOD1 252346Z 15016KT 28/21 A2987 RMK A01 T02760214  RH  069%=      5-min Rain = 0
KOD1 252347Z 15016KT 28/21 A2987 RMK A01 T02760214  RH  069%=      5-min Rain = 0
KOD1 252348Z 15013KT 28/22 A2987 RMK A01 T02760216  RH  070%=      5-min Rain = 0
KOD1 252349Z 15016KT 28/22 A2987 RMK A01 T02750215  RH  070%=      5-min Rain = 0
KOD1 252350Z 15016KT 28/21 A2987 RMK A01 T02760214  RH  069%=      5-min Rain = 0
KOD1 252351Z 15013KT 28/22 A2987 RMK A01 T02760215  RH  070%=      5-min Rain = 0
KOD1 252352Z 15015KT 28/22 A2987 RMK A01 T02750215  RH  070%=      5-min Rain = 0
KOD1 252353Z 15017KT 28/21 A2987 RMK A01 T02750214  RH  069%=      5-min Rain = 0
KOD1 252354Z 15014KT 28/21 A2987 RMK A01 T02760214  RH  069%=      5-min Rain = 0
KOD1 252355Z 14014KT 28/22 A2987 RMK A01 T02750215  RH  070%=      5-min Rain = 0
KOD1 252356Z 15015KT 28/21 A2987 RMK A01 T02750214  RH  069%=      5-min Rain = 0
KOD1 252357Z 15016KT 28/21 A2987 RMK A01 T02760213  RH  069%=      5-min Rain = 0
KOD1 252358Z 14014KT 28/21 A2987 RMK A01 T02760214  RH  069%=      5-min Rain = 0
KOD1 252359Z 15016KT 28/21 A2987 RMK A01 T02760213  RH  068%=      5-min Rain = 0
KOD1 260000Z 15017KT 28/21 A2987 RMK A01 T02760213  RH  068%=      5-min Rain = 0
KOD1 260001Z 15014KT 28/21 A2987 RMK A01 T02760213  RH  068%=      5-min Rain = 0
KOD1 260002Z 15014KT 28/21 A2987 RMK A01 T02750214  RH  069%=      5-min Rain = 0
KOD1 260003Z 15015KT 27/21 A2987 RMK A01 T02740214  RH  070%=      5-min Rain = 0
KOD1 260004Z 15014KT 27/21 A2987 RMK A01 T02740214  RH  070%=      5-min Rain = 0
KOD1 260005Z 15014KT 27/22 A2987 RMK A01 T02730215  RH  070%=      5-min Rain = 0
KOD1 260006Z 15015KT 27/21 A2987 RMK A01 T02730214  RH  070%=      5-min Rain = 0
KOD1 260007Z 15015KT 27/21 A2987 RMK A01 T02740214  RH  070%=      5-min Rain = 0
KOD1 260008Z 15016KT 27/21 A2987 RMK A01 T02740214  RH  070%=      5-min Rain = 0
KOD1 260009Z 14015KT 27/21 A2987 RMK A01 T02740214  RH  070%=      5-min Rain = 0
KOD1 260010Z 15015KT 27/21 A2987 RMK A01 T02740214  RH  070%=      5-min Rain = 0
KOD1 260011Z 15013KT 27/22 A2987 RMK A01 T02740215  RH  070%=      5-min Rain = 0
KOD1 260012Z 15014G19KT 27/22 A2987 RMK A01 T02730216  RH  071%=      5-min Rain = 0
KOD1 260013Z 15013KT 27/22 A2987 RMK A01 T02720215  RH  071%=      5-min Rain = 0
KOD1 260014Z 14013KT 27/22 A2988 RMK A01 T02720215  RH  071%=      5-min Rain = 0
KOD1 260015Z 14012KT 27/22 A2988 RMK A01 T02720215  RH  071%=      5-min Rain = 0
KOD1 260016Z 14013KT 27/22 A2988 RMK A01 T02720215  RH  071%=      5-min Rain = 0
KOD1 260017Z 15012KT 27/21 A2988 RMK A01 T02730214  RH  070%=      5-min Rain = 0
KOD1 260018Z 14011KT 27/22 A2988 RMK A01 T02730215  RH  071%=      5-min Rain = 0
KOD1 260019Z 14010KT 27/22 A2989 RMK A01 T02720215  RH  071%=      5-min Rain = 0
KOD1 260020Z 14013KT 27/22 A2989 RMK A01 T02720215  RH  071%=      5-min Rain = 0
KOD1 260021Z 14010KT 27/22 A2989 RMK A01 T02730216  RH  071%=      5-min Rain = 0
KOD1 260022Z 14011KT 27/22 A2989 RMK A01 T02720215  RH  071%=      5-min Rain = 0
KOD1 260023Z 15010KT 27/22 A2989 RMK A01 T02720216  RH  071%=      5-min Rain = 0
KOD1 260024Z 14010KT 27/22 A2989 RMK A01 T02720216  RH  071%=      5-min Rain = 0
KOD1 260025Z 15011KT 27/22 A2989 RMK A01 T02720215  RH  071%=      5-min Rain = 0
KOD1 260026Z 15012KT 27/22 A2989 RMK A01 T02720216  RH  071%=      5-min Rain = 0
KOD1 260027Z 15014KT 27/22 A2989 RMK A01 T02720215  RH  071%=      5-min Rain = 0
KOD1 260028Z 15014KT 27/22 A2989 RMK A01 T02720215  RH  071%=      5-min Rain = 0
KOD1 260029Z 15014KT 27/22 A2989 RMK A01 T02720215  RH  071%=      5-min Rain = 0
KOD1 260030Z 16014KT 27/21 A2989 RMK A01 T02720214  RH  071%=      5-min Rain = 0
KOD1 260031Z 16013KT 27/22 A2989 RMK A01 T02720215  RH  071%=      5-min Rain = 0
KOD1 260032Z 16012KT 27/22 A2989 RMK A01 T02710216  RH  071%=      5-min Rain = 0
KOD1 260033Z 16013KT 27/22 A2989 RMK A01 T02710216  RH  072%=      5-min Rain = 0
KOD1 260034Z 16016KT 27/21 A2989 RMK A01 T02710214  RH  071%=      5-min Rain = 0
KOD1 260035Z 16014KT 27/21 A2988 RMK A01 T02720214  RH  071%=      5-min Rain = 0
KOD1 260036Z 16015KT 27/21 A2988 RMK A01 T02720214  RH  071%=      5-min Rain = 0
KOD1 260037Z 15015KT 27/22 A2988 RMK A01 T02710215  RH  071%=      5-min Rain = 0
KOD1 260038Z 16016KT 27/22 A2987 RMK A01 T02710215  RH  071%=      5-min Rain = 0
KOD1 260039Z 16015KT 27/21 A2987 RMK A01 T02710214  RH  071%=      5-min Rain = 0
KOD1 260040Z 15015G20KT 27/21 A2987 RMK A01 T02700214  RH  071%=      5-min Rain = 0
KOD1 260041Z 15014KT 27/22 A2987 RMK A01 T02700215  RH  071%=      5-min Rain = 0
KOD1 260042Z 15015KT 27/21 A2987 RMK A01 T02700214  RH  072%=      5-min Rain = 0
KOD1 260043Z 16016KT 27/21 A2987 RMK A01 T02700214  RH  072%=      5-min Rain = 0
KOD1 260044Z 15013KT 27/21 A2987 RMK A01 T02700214  RH  072%=      5-min Rain = 0
KOD1 260045Z 15016KT 27/21 A2987 RMK A01 T02700213  RH  071%=      5-min Rain = 0
KOD1 260046Z 15017KT 27/21 A2987 RMK A01 T02700212  RH  071%=      5-min Rain = 0
KOD1 260047Z 15015KT 27/21 A2986 RMK A01 T02710213  RH  071%=      5-min Rain = 0
KOD1 260048Z 15016G21KT 27/21 A2986 RMK A01 T02700213  RH  071%=      5-min Rain = 0
KOD1 260049Z 15016KT 27/21 A2986 RMK A01 T02700213  RH  071%=      5-min Rain = 0
KOD1 260050Z 15016KT 27/21 A2986 RMK A01 T02700213  RH  071%=      5-min Rain = 0
KOD1 260051Z 15016KT 27/21 A2986 RMK A01 T02700213  RH  071%=      5-min Rain = 0
KOD1 260052Z 15015KT 27/21 A2986 RMK A01 T02700213  RH  071%=      5-min Rain = 0
KOD1 260053Z 15016G21KT 27/21 A2986 RMK A01 T02690213  RH  071%=      5-min Rain = 0
KOD1 260054Z 15016KT 27/21 A2986 RMK A01 T02700212  RH  071%=      5-min Rain = 0
KOD1 260055Z 15017KT 27/21 A2986 RMK A01 T02690213  RH  071%=      5-min Rain = 0
KOD1 260056Z 15015KT 27/21 A2986 RMK A01 T02690212  RH  071%=      5-min Rain = 0
KOD1 260057Z 15014KT 27/21 A2986 RMK A01 T02690213  RH  071%=      5-min Rain = 0
KOD1 260058Z 14016KT 27/21 A2986 RMK A01 T02680213  RH  072%=      5-min Rain = 0
KOD1 260059Z 14017KT 27/21 A2986 RMK A01 T02690211  RH  071%=      5-min Rain = 0
KOD1 260100Z 15014KT 27/21 A2986 RMK A01 T02700212  RH  070%=      5-min Rain = 0
KOD1 260101Z 15015KT 27/21 A2987 RMK A01 T02700212  RH  071%=      5-min Rain = 0
KOD1 260102Z 15015KT 27/21 A2987 RMK A01 T02700212  RH  070%=      5-min Rain = 0
KOD1 260103Z 15015G20KT 27/21 A2987 RMK A01 T02700212  RH  070%=      5-min Rain = 0
KOD1 260104Z 15014KT 27/21 A2987 RMK A01 T02700212  RH  071%=      5-min Rain = 0
KOD1 260105Z 14013KT 27/21 A2987 RMK A01 T02700212  RH  071%=      5-min Rain = 0
KOD1 260106Z 14013KT 27/21 A2987 RMK A01 T02700213  RH  071%=      5-min Rain = 0
KOD1 260107Z 15012KT 27/21 A2987 RMK A01 T02690212  RH  071%=      5-min Rain = 0
KOD1 260108Z 15014KT 27/21 A2987 RMK A01 T02690213  RH  071%=      5-min Rain = 0
KOD1 260109Z 15012KT 27/21 A2987 RMK A01 T02690212  RH  071%=      5-min Rain = 0
KOD1 260110Z 15011KT 27/21 A2988 RMK A01 T02680214  RH  072%=      5-min Rain = 0
KOD1 260111Z 14014KT 27/21 A2988 RMK A01 T02670213  RH  072%=      5-min Rain = 0
KOD1 260112Z 15012KT 27/21 A2988 RMK A01 T02680213  RH  072%=      5-min Rain = 0
KOD1 260113Z 15013KT 27/21 A2988 RMK A01 T02680213  RH  072%=      5-min Rain = 0
KOD1 260114Z 15013KT 27/21 A2988 RMK A01 T02680212  RH  072%=      5-min Rain = 0
KOD1 260115Z 15013KT 27/21 A2988 RMK A01 T02670213  RH  072%=      5-min Rain = 0
KOD1 260116Z 16011KT 27/21 A2988 RMK A01 T02670213  RH  073%=      5-min Rain = 0
KOD1 260117Z 16013KT 27/21 A2989 RMK A01 T02660214  RH  073%=      5-min Rain = 0
KOD1 260118Z 15013KT 27/21 A2989 RMK A01 T02660213  RH  073%=      5-min Rain = 0
KOD1 260119Z 15012KT 27/21 A2989 RMK A01 T02660214  RH  073%=      5-min Rain = 0
KOD1 260120Z 16011KT 26/21 A2989 RMK A01 T02640214  RH  074%=      5-min Rain = 0
KOD1 260121Z 16012KT 26/22 A2989 RMK A01 T02630215  RH  075%=      5-min Rain = 0
KOD1 260122Z 16011KT 26/21 A2989 RMK A01 T02630214  RH  074%=      5-min Rain = 0
KOD1 260123Z 16014KT 26/21 A2989 RMK A01 T02630214  RH  074%=      5-min Rain = 0
KOD1 260124Z 15013KT 26/21 A2989 RMK A01 T02630213  RH  074%=      5-min Rain = 0
KOD1 260125Z 15014KT 26/21 A2989 RMK A01 T02640213  RH  074%=      5-min Rain = 0
KOD1 260126Z 15013KT 26/21 A2989 RMK A01 T02640213  RH  074%=      5-min Rain = 0
KOD1 260127Z 15014KT 26/21 A2989 RMK A01 T02640213  RH  074%=      5-min Rain = 0
KOD1 260128Z 15013KT 26/21 A2989 RMK A01 T02640213  RH  073%=      5-min Rain = 0
KOD1 260129Z 15013KT 26/21 A2989 RMK A01 T02640213  RH  073%=      5-min Rain = 0
KOD1 260130Z 15012KT 26/21 A2989 RMK A01 T02640213  RH  073%=      5-min Rain = 0
KOD1 260131Z 15013KT 26/21 A2989 RMK A01 T02640213  RH  074%=      5-min Rain = 0
KOD1 260132Z 15013KT 26/21 A2989 RMK A01 T02630213  RH  074%=      5-min Rain = 0
KOD1 260133Z 15013KT 26/21 A2989 RMK A01 T02630214  RH  074%=      5-min Rain = 0
KOD1 260134Z 15012KT 26/21 A2989 RMK A01 T02630214  RH  074%=      5-min Rain = 0
KOD1 260135Z 15012KT 26/21 A2988 RMK A01 T02620214  RH  075%=      5-min Rain = 0
KOD1 260136Z 15013KT 26/21 A2988 RMK A01 T02620214  RH  075%=      5-min Rain = 0
KOD1 260137Z 15012G17KT 26/21 A2988 RMK A01 T02620213  RH  074%=      5-min Rain = 0
KOD1 260138Z 15013KT 26/21 A2988 RMK A01 T02620214  RH  075%=      5-min Rain = 0
KOD1 260139Z 15013KT 26/21 A2989 RMK A01 T02610213  RH  075%=      5-min Rain = 0
KOD1 260140Z 15014KT 26/21 A2989 RMK A01 T02620213  RH  074%=      5-min Rain = 0
KOD1 260141Z 15013KT 26/21 A2989 RMK A01 T02620214  RH  075%=      5-min Rain = 0
KOD1 260142Z 15012KT 26/21 A2989 RMK A01 T02610214  RH  075%=      5-min Rain = 0
KOD1 260143Z 15013KT 26/21 A2989 RMK A01 T02610213  RH  075%=      5-min Rain = 0
KOD1 260144Z 15013KT 26/21 A2989 RMK A01 T02610214  RH  075%=      5-min Rain = 0
KOD1 260145Z 15013KT 26/21 A2989 RMK A01 T02610213  RH  075%=      5-min Rain = 0
KOD1 260146Z 15014KT 26/21 A2989 RMK A01 T02610213  RH  075%=      5-min Rain = 0
KOD1 260147Z 15013KT 26/21 A2989 RMK A01 T02610213  RH  075%=      5-min Rain = 0
KOD1 260148Z 15012KT 26/21 A299 RMK A01 T02610214  RH  075%=      5-min Rain = 0
KOD1 260149Z 15010KT 26/21 A299 RMK A01 T02600214  RH  076%=      5-min Rain = 0
KOD1 260150Z 15011KT 26/22 A299 RMK A01 T02590215  RH  077%=      5-min Rain = 0
KOD1 260151Z 15012KT 26/21 A299 RMK A01 T02580214  RH  076%=      5-min Rain = 0
KOD1 260152Z 15012KT 26/21 A299 RMK A01 T02580213  RH  076%=      5-min Rain = 0
KOD1 260153Z 15012KT 26/21 A299 RMK A01 T02590213  RH  076%=      5-min Rain = 0
KOD1 260154Z 15011KT 26/21 A299 RMK A01 T02590214  RH  076%=      5-min Rain = 0
KOD1 260155Z 15013KT 26/21 A299 RMK A01 T02590213  RH  076%=      5-min Rain = 0
KOD1 260156Z 15011KT 26/21 A299 RMK A01 T02600214  RH  076%=      5-min Rain = 0
KOD1 260157Z 15011KT 26/21 A299 RMK A01 T02590214  RH  076%=      5-min Rain = 0
KOD1 260158Z 15010KT 26/21 A299 RMK A01 T02580214  RH  077%=      5-min Rain = 0
KOD1 260159Z 15010KT 26/21 A299 RMK A01 T02570214  RH  077%=      5-min Rain = 0
KOD1 260200Z 15009KT 26/21 A299 RMK A01 T02570214  RH  077%=      5-min Rain = 0
KOD1 260201Z 15009KT 26/22 A299 RMK A01 T02570215  RH  078%=      5-min Rain = 0
KOD1 260202Z 15010KT 26/21 A299 RMK A01 T02570214  RH  077%=      5-min Rain = 0
KOD1 260203Z 15009KT 26/21 A299 RMK A01 T02570214  RH  077%=      5-min Rain = 0
KOD1 260204Z 15010KT 26/22 A299 RMK A01 T02570215  RH  078%=      5-min Rain = 0
KOD1 260205Z 15010KT 26/21 A299 RMK A01 T02570214  RH  077%=      5-min Rain = 0
KOD1 260206Z 15010KT 26/22 A299 RMK A01 T02570215  RH  077%=      5-min Rain = 0
KOD1 260207Z 15009KT 26/22 A299 RMK A01 T02560215  RH  078%=      5-min Rain = 0
KOD1 260208Z 15010KT 26/22 A299 RMK A01 T02560215  RH  078%=      5-min Rain = 0
KOD1 260209Z 15010KT 26/21 A299 RMK A01 T02560214  RH  078%=      5-min Rain = 0
KOD1 260210Z 15009KT 26/21 A299 RMK A01 T02560214  RH  077%=      5-min Rain = 0
KOD1 260211Z 15009KT 26/22 A299 RMK A01 T02560215  RH  078%=      5-min Rain = 0
KOD1 260212Z 15010KT 26/22 A299 RMK A01 T02560215  RH  078%=      5-min Rain = 0
KOD1 260213Z 15011KT 26/22 A299 RMK A01 T02560215  RH  078%=      5-min Rain = 0
KOD1 260214Z 15010KT 26/22 A299 RMK A01 T02560215  RH  078%=      5-min Rain = 0
KOD1 260215Z 15011KT 26/22 A299 RMK A01 T02560215  RH  078%=      5-min Rain = 0
KOD1 260216Z 14010KT 26/22 A299 RMK A01 T02570215  RH  078%=      5-min Rain = 0
KOD1 260217Z 15010KT 26/22 A299 RMK A01 T02560215  RH  078%=      5-min Rain = 0
KOD1 260218Z 14012KT 26/21 A299 RMK A01 T02570214  RH  077%=      5-min Rain = 0
KOD1 260219Z 14012KT 26/21 A299 RMK A01 T02580214  RH  077%=      5-min Rain = 0
KOD1 260220Z 15011KT 26/21 A299 RMK A01 T02580214  RH  077%=      5-min Rain = 0
KOD1 260221Z 14011KT 26/22 A299 RMK A01 T02580215  RH  077%=      5-min Rain = 0
KOD1 260222Z 14010KT 26/21 A299 RMK A01 T02570214  RH  077%=      5-min Rain = 0
KOD1 260223Z 15009KT 26/22 A299 RMK A01 T02570215  RH  077%=      5-min Rain = 0
KOD1 260224Z 15009KT 26/22 A299 RMK A01 T02570215  RH  078%=      5-min Rain = 0
KOD1 260225Z 14010KT 26/22 A299 RMK A01 T02560215  RH  078%=      5-min Rain = 0
KOD1 260226Z 14008KT 26/22 A299 RMK A01 T02570215  RH  078%=      5-min Rain = 0
KOD1 260227Z 14007KT 26/22 A2991 RMK A01 T02570215  RH  078%=      5-min Rain = 0
KOD1 260228Z 14007KT 26/22 A2991 RMK A01 T02550215  RH  078%=      5-min Rain = 0
KOD1 260229Z 14007KT 26/22 A2991 RMK A01 T02550215  RH  079%=      5-min Rain = 0
KOD1 260230Z 13007KT 25/22 A2991 RMK A01 T02540215  RH  079%=      5-min Rain = 0
KOD1 260231Z 13008KT 25/22 A2991 RMK A01 T02530215  RH  079%=      5-min Rain = 0
KOD1 260232Z 13009KT 25/22 A2991 RMK A01 T02530215  RH  079%=      5-min Rain = 0
KOD1 260233Z 13007KT 25/22 A2991 RMK A01 T02540215  RH  079%=      5-min Rain = 0
KOD1 260234Z 13008KT 25/22 A2991 RMK A01 T02540215  RH  079%=      5-min Rain = 0
KOD1 260235Z 13009KT 25/22 A2992 RMK A01 T02540215  RH  079%=      5-min Rain = 0
KOD1 260236Z 13007KT 25/22 A2992 RMK A01 T02540215  RH  079%=      5-min Rain = 0
KOD1 260237Z 13007KT 25/22 A2992 RMK A01 T02540215  RH  079%=      5-min Rain = 0
KOD1 260238Z 14007KT 25/22 A2992 RMK A01 T02530215  RH  080%=      5-min Rain = 0
KOD1 260239Z 13008KT 25/22 A2992 RMK A01 T02530215  RH  080%=      5-min Rain = 0
KOD1 260240Z 13009KT 25/22 A2992 RMK A01 T02530215  RH  080%=      5-min Rain = 0
KOD1 260241Z 13008KT 25/22 A2992 RMK A01 T02530215  RH  079%=      5-min Rain = 0
KOD1 260242Z 13008KT 25/22 A2993 RMK A01 T02530215  RH  080%=      5-min Rain = 0
KOD1 260243Z 13008KT 25/22 A2993 RMK A01 T02530216  RH  080%=      5-min Rain = 0
KOD1 260244Z 13008KT 25/22 A2993 RMK A01 T02530216  RH  080%=      5-min Rain = 0
KOD1 260245Z 12007KT 25/22 A2993 RMK A01 T02530216  RH  080%=      5-min Rain = 0
KOD1 260246Z 13008KT 25/22 A2993 RMK A01 T02530215  RH  080%=      5-min Rain = 0
KOD1 260247Z 13006KT 25/22 A2993 RMK A01 T02530216  RH  080%=      5-min Rain = 0
KOD1 260248Z 12007KT 25/22 A2993 RMK A01 T02530216  RH  080%=      5-min Rain = 0
KOD1 260249Z 13008KT 25/22 A2993 RMK A01 T02530216  RH  080%=      5-min Rain = 0
KOD1 260250Z 13008KT 25/22 A2993 RMK A01 T02530216  RH  080%=      5-min Rain = 0
KOD1 260251Z 13006KT 25/22 A2993 RMK A01 T02530216  RH  080%=      5-min Rain = 0
KOD1 260252Z 13008KT 25/22 A2994 RMK A01 T02520216  RH  080%=      5-min Rain = 0
KOD1 260253Z 13007KT 25/22 A2994 RMK A01 T02530216  RH  080%=      5-min Rain = 0
KOD1 260254Z 13007KT 25/22 A2994 RMK A01 T02530216  RH  080%=      5-min Rain = 0
KOD1 260255Z 13007KT 25/22 A2994 RMK A01 T02520216  RH  081%=      5-min Rain = 0
KOD1 260256Z 12007KT 25/22 A2994 RMK A01 T02520216  RH  081%=      5-min Rain = 0
KOD1 260257Z 13007KT 25/22 A2994 RMK A01 T02520216  RH  081%=      5-min Rain = 0
KOD1 260258Z 13007KT 25/22 A2994 RMK A01 T02520216  RH  081%=      5-min Rain = 0
KOD1 260259Z 13007KT 25/22 A2994 RMK A01 T02520216  RH  080%=      5-min Rain = 0
KOD1 260300Z 12007KT 25/22 A2994 RMK A01 T02520216  RH  080%=      5-min Rain = 0
KOD1 260301Z 12007KT 25/22 A2994 RMK A01 T02520217  RH  081%=      5-min Rain = 0
KOD1 260302Z 13009KT 25/22 A2994 RMK A01 T02520217  RH  081%=      5-min Rain = 0
KOD1 260303Z 13009KT 25/22 A2994 RMK A01 T02520216  RH  081%=      5-min Rain = 0
KOD1 260304Z 13008KT 25/22 A2994 RMK A01 T02520216  RH  080%=      5-min Rain = 0
KOD1 260305Z 13008KT 25/22 A2995 RMK A01 T02530216  RH  080%=      5-min Rain = 0
KOD1 260306Z 13008KT 25/22 A2995 RMK A01 T02530216  RH  080%=      5-min Rain = 0
KOD1 260307Z 13008KT 25/22 A2995 RMK A01 T02530216  RH  080%=      5-min Rain = 0
KOD1 260308Z 13007KT 25/22 A2995 RMK A01 T02530217  RH  080%=      5-min Rain = 0
KOD1 260309Z 12006KT 25/22 A2995 RMK A01 T02530217  RH  081%=      5-min Rain = 0
KOD1 260310Z 12009KT 25/22 A2995 RMK A01 T02520216  RH  081%=      5-min Rain = 0
KOD1 260311Z 12007KT 25/22 A2995 RMK A01 T02520216  RH  080%=      5-min Rain = 0
KOD1 260312Z 13008KT 25/22 A2995 RMK A01 T02520217  RH  081%=      5-min Rain = 0
KOD1 260313Z 12008KT 25/22 A2995 RMK A01 T02520216  RH  080%=      5-min Rain = 0
KOD1 260314Z 12008KT 25/22 A2995 RMK A01 T02530217  RH  081%=      5-min Rain = 0
KOD1 260315Z 12008KT 25/22 A2995 RMK A01 T02520217  RH  081%=      5-min Rain = 0
KOD1 260316Z 12008KT 25/22 A2995 RMK A01 T02520216  RH  081%=      5-min Rain = 0
KOD1 260317Z 12008KT 25/22 A2995 RMK A01 T02520217  RH  081%=      5-min Rain = 0
KOD1 260318Z 12009KT 25/22 A2995 RMK A01 T02510217  RH  081%=      5-min Rain = 0
KOD1 260319Z 12007KT 25/22 A2995 RMK A01 T02510217  RH  081%=      5-min Rain = 0
KOD1 260320Z 12007KT 25/22 A2995 RMK A01 T02510217  RH  081%=      5-min Rain = 0
KOD1 260321Z 12009KT 25/22 A2995 RMK A01 T02510217  RH  082%=      5-min Rain = 0
KOD1 260322Z 12009KT 25/22 A2995 RMK A01 T02510217  RH  081%=      5-min Rain = 0
KOD1 260323Z 12009KT 25/22 A2995 RMK A01 T02510217  RH  081%=      5-min Rain = 0
KOD1 260324Z 11009KT 25/22 A2995 RMK A01 T02510217  RH  082%=      5-min Rain = 0
KOD1 260325Z 11009KT 25/22 A2995 RMK A01 T02500217  RH  082%=      5-min Rain = 0
KOD1 260326Z 11008KT 25/22 A2995 RMK A01 T02500217  RH  082%=      5-min Rain = 0
KOD1 260327Z 11009KT 25/22 A2995 RMK A01 T02500217  RH  082%=      5-min Rain = 0
KOD1 260328Z 11009KT 25/22 A2995 RMK A01 T02500217  RH  082%=      5-min Rain = 0
KOD1 260329Z 11010KT 25/22 A2995 RMK A01 T02500216  RH  081%=      5-min Rain = 0
KOD1 260330Z 11009KT 25/22 A2995 RMK A01 T02510216  RH  081%=      5-min Rain = 0
KOD1 260331Z 11010KT 25/22 A2995 RMK A01 T02510216  RH  081%=      5-min Rain = 0
KOD1 260332Z 11009KT 25/22 A2995 RMK A01 T02510216  RH  081%=      5-min Rain = 0
KOD1 260333Z 11008KT 25/22 A2995 RMK A01 T02510217  RH  081%=      5-min Rain = 0
KOD1 260334Z 11008KT 25/22 A2995 RMK A01 T02510217  RH  081%=      5-min Rain = 0
KOD1 260335Z 11009KT 25/22 A2995 RMK A01 T02510217  RH  082%=      5-min Rain = 0
KOD1 260336Z 11009KT 25/22 A2996 RMK A01 T02510216  RH  081%=      5-min Rain = 0
KOD1 260337Z 11008KT 25/22 A2996 RMK A01 T02510217  RH  081%=      5-min Rain = 0
KOD1 260338Z 11008KT 25/22 A2996 RMK A01 T02510217  RH  081%=      5-min Rain = 0
KOD1 260339Z 11008KT 25/22 A2996 RMK A01 T02510217  RH  081%=      5-min Rain = 0
KOD1 260340Z 12009KT 25/22 A2996 RMK A01 T02510217  RH  081%=      5-min Rain = 0
KOD1 260341Z 12009KT 25/22 A2996 RMK A01 T02510217  RH  081%=      5-min Rain = 0
KOD1 260342Z 12009KT 25/22 A2996 RMK A01 T02510217  RH  081%=      5-min Rain = 0
KOD1 260343Z 12009KT 25/22 A2996 RMK A01 T02510217  RH  082%=      5-min Rain = 0
KOD1 260344Z 12009KT 25/22 A2996 RMK A01 T02510217  RH  081%=      5-min Rain = 0
KOD1 260345Z 12010KT 25/22 A2996 RMK A01 T02510216  RH  081%=      5-min Rain = 0
KOD1 260346Z 12010KT 25/22 A2996 RMK A01 T02510216  RH  081%=      5-min Rain = 0
KOD1 260347Z 12009KT 25/22 A2996 RMK A01 T02520216  RH  081%=      5-min Rain = 0
KOD1 260348Z 13008KT 25/22 A2996 RMK A01 T02520216  RH  081%=      5-min Rain = 0
KOD1 260349Z 13010KT 25/22 A2997 RMK A01 T02520216  RH  080%=      5-min Rain = 0
KOD1 260350Z 13009KT 25/22 A2997 RMK A01 T02520216  RH  080%=      5-min Rain = 0
KOD1 260351Z 13009KT 25/22 A2997 RMK A01 T02520216  RH  080%=      5-min Rain = 0
KOD1 260352Z 13009KT 25/22 A2997 RMK A01 T02530216  RH  080%=      5-min Rain = 0
KOD1 260353Z 13010KT 25/22 A2997 RMK A01 T02530216  RH  080%=      5-min Rain = 0
KOD1 260354Z 13010KT 25/22 A2997 RMK A01 T02530215  RH  079%=      5-min Rain = 0
KOD1 260355Z 13009KT 25/22 A2997 RMK A01 T02540215  RH  079%=      5-min Rain = 0
KOD1 260356Z 12009KT 25/22 A2997 RMK A01 T02540215  RH  079%=      5-min Rain = 0
KOD1 260357Z 13008KT 25/22 A2997 RMK A01 T02540215  RH  079%=      5-min Rain = 0
KOD1 260358Z 12008KT 25/22 A2997 RMK A01 T02530216  RH  080%=      5-min Rain = 0
KOD1 260359Z 12008KT 25/22 A2996 RMK A01 T02530216  RH  080%=      5-min Rain = 0
KOD1 260400Z 12010KT 25/22 A2996 RMK A01 T02520215  RH  080%=      5-min Rain = 0
KOD1 260401Z 12012KT 25/22 A2996 RMK A01 T02520215  RH  080%=      5-min Rain = 0
KOD1 260402Z 12009KT 25/22 A2996 RMK A01 T02520215  RH  080%=      5-min Rain = 0
KOD1 260403Z 11008KT 25/22 A2996 RMK A01 T02510215  RH  081%=      5-min Rain = 0
KOD1 260404Z 11009KT 25/22 A2996 RMK A01 T02500215  RH  081%=      5-min Rain = 0
KOD1 260405Z 11008KT 25/22 A2996 RMK A01 T02490215  RH  081%=      5-min Rain = 0
KOD1 260406Z 11006KT 25/22 A2996 RMK A01 T02480216  RH  082%=      5-min Rain = 0
KOD1 260407Z 11007KT 25/22 A2996 RMK A01 T02470216  RH  083%=      5-min Rain = 0
KOD1 260408Z 11007KT 25/22 A2996 RMK A01 T02470216  RH  083%=      5-min Rain = 0
KOD1 260409Z 11008KT 25/22 A2996 RMK A01 T02460216  RH  083%=      5-min Rain = 0
KOD1 260410Z 11008KT 25/22 A2996 RMK A01 T02460216  RH  083%=      5-min Rain = 0
KOD1 260411Z 11008KT 25/22 A2996 RMK A01 T02460216  RH  083%=      5-min Rain = 0
KOD1 260412Z 11009KT 25/22 A2996 RMK A01 T02460216  RH  083%=      5-min Rain = 0
KOD1 260413Z 12008KT 25/22 A2996 RMK A01 T02460216  RH  083%=      5-min Rain = 0
KOD1 260414Z 12009KT 25/22 A2996 RMK A01 T02460216  RH  083%=      5-min Rain = 0
KOD1 260415Z 12009KT 25/22 A2996 RMK A01 T02460215  RH  083%=      5-min Rain = 0
KOD1 260416Z 11008KT 25/22 A2996 RMK A01 T02460215  RH  083%=      5-min Rain = 0
KOD1 260417Z 12007KT 25/22 A2996 RMK A01 T02460216  RH  083%=      5-min Rain = 0
KOD1 260418Z 11007KT 25/22 A2996 RMK A01 T02460216  RH  083%=      5-min Rain = 0
KOD1 260419Z 12008KT 25/22 A2996 RMK A01 T02460216  RH  083%=      5-min Rain = 0
KOD1 260420Z 11008KT 25/22 A2996 RMK A01 T02450216  RH  083%=      5-min Rain = 0
KOD1 260421Z 11009KT 25/22 A2996 RMK A01 T02450216  RH  084%=      5-min Rain = 0
KOD1 260422Z 11009KT 25/22 A2996 RMK A01 T02450216  RH  083%=      5-min Rain = 0
KOD1 260423Z 11009KT 25/22 A2996 RMK A01 T02450215  RH  083%=      5-min Rain = 0
KOD1 260424Z 11009KT 25/22 A2996 RMK A01 T02450216  RH  083%=      5-min Rain = 0
KOD1 260425Z 11008KT 25/22 A2996 RMK A01 T02450215  RH  084%=      5-min Rain = 0
KOD1 260426Z 12009KT 25/22 A2996 RMK A01 T02450215  RH  084%=      5-min Rain = 0
KOD1 260427Z 12008KT 25/22 A2996 RMK A01 T02450215  RH  084%=      5-min Rain = 0
KOD1 260428Z 11008KT 24/22 A2996 RMK A01 T02440216  RH  084%=      5-min Rain = 0
KOD1 260429Z 11008KT 24/22 A2996 RMK A01 T02440216  RH  084%=      5-min Rain = 0
KOD1 260430Z 11009KT 24/22 A2996 RMK A01 T02440215  RH  084%=      5-min Rain = 0
KOD1 260431Z 11007KT 24/22 A2996 RMK A01 T02430215  RH  084%=      5-min Rain = 0
KOD1 260432Z 11009KT 24/22 A2996 RMK A01 T02430215  RH  085%=      5-min Rain = 0
KOD1 260433Z 11008KT 24/22 A2996 RMK A01 T02430215  RH  085%=      5-min Rain = 0
KOD1 260434Z 11008KT 24/22 A2996 RMK A01 T02420216  RH  085%=      5-min Rain = 0
KOD1 260435Z 11008KT 24/22 A2996 RMK A01 T02420216  RH  085%=      5-min Rain = 0
KOD1 260436Z 11008KT 24/22 A2996 RMK A01 T02420215  RH  085%=      5-min Rain = 0
KOD1 260437Z 11008KT 24/22 A2996 RMK A01 T02420216  RH  085%=      5-min Rain = 0
KOD1 260438Z 11009KT 24/22 A2996 RMK A01 T02410216  RH  085%=      5-min Rain = 0
KOD1 260439Z 11008KT 24/22 A2996 RMK A01 T02410216  RH  086%=      5-min Rain = 0
KOD1 260440Z 11008KT 24/22 A2996 RMK A01 T02410216  RH  086%=      5-min Rain = 0
KOD1 260441Z 10008KT 24/22 A2996 RMK A01 T02410216  RH  086%=      5-min Rain = 0
KOD1 260442Z 11008KT 24/22 A2996 RMK A01 T02410216  RH  086%=      5-min Rain = 0
KOD1 260443Z 11009KT 24/22 A2996 RMK A01 T02410216  RH  086%=      5-min Rain = 0
KOD1 260444Z 11008KT 24/22 A2996 RMK A01 T02410216  RH  086%=      5-min Rain = 0
KOD1 260445Z 11007KT 24/22 A2996 RMK A01 T02400215  RH  086%=      5-min Rain = 0
KOD1 260446Z 12010KT 24/22 A2996 RMK A01 T02400216  RH  086%=      5-min Rain = 0
KOD1 260447Z 11008KT 24/22 A2995 RMK A01 T02400215  RH  086%=      5-min Rain = 0
KOD1 260448Z 12009KT 24/22 A2995 RMK A01 T02400215  RH  086%=      5-min Rain = 0
KOD1 260449Z 12009KT 24/22 A2995 RMK A01 T02400215  RH  086%=      5-min Rain = 0
KOD1 260450Z 12010KT 24/22 A2995 RMK A01 T02400215  RH  086%=      5-min Rain = 0
KOD1 260451Z 12010KT 24/22 A2995 RMK A01 T02410215  RH  086%=      5-min Rain = 0
KOD1 260452Z 12009KT 24/22 A2995 RMK A01 T02410215  RH  086%=      5-min Rain = 0
KOD1 260453Z 12011KT 24/22 A2995 RMK A01 T02410215  RH  086%=      5-min Rain = 0
KOD1 260454Z 12010KT 24/22 A2995 RMK A01 T02410215  RH  086%=      5-min Rain = 0
KOD1 260455Z 12012KT 24/22 A2995 RMK A01 T02400215  RH  086%=      5-min Rain = 0
KOD1 260456Z 12010KT 24/22 A2995 RMK A01 T02410215  RH  086%=      5-min Rain = 0
KOD1 260457Z 12011KT 24/22 A2995 RMK A01 T02410215  RH  086%=      5-min Rain = 0
KOD1 260458Z 12010KT 24/22 A2995 RMK A01 T02410215  RH  085%=      5-min Rain = 0
KOD1 260459Z 12010KT 24/22 A2995 RMK A01 T02410215  RH  085%=      5-min Rain = 0

Page generated in 0.1639 seconds.